Latitude: N 50° 09' 49" Longitude: W 05° 11' 53" Elevation: 168m ASL

There are 8 visitors online

Adverts

<- Previous Day | Today | Next Day ->

All Data for 27 May 2018

Time
A - D
Temp
A - D
Dew Point
A - D
Humidity
A - D
Pressure
A - D
Wind
A - D
Wind Dir Gust
A - D
Rain Rate
A - D
Rain Total
00:00 14.6 13.5 93 1012.7 6.0 NE 7.6 0.0 0.0
00:02 14.6 13.5 93 1012.7 7.6 NE 7.6 0.0 0.0
00:04 14.6 13.5 93 1012.7 7.6 NE 7.6 0.0 0.0
00:05 14.6 13.5 93 1012.8 7.6 NE 7.6 0.0 0.0
00:07 14.6 13.5 93 1012.6 5.4 NE 7.6 0.0 0.0
00:09 14.6 13.5 93 1012.7 8.3 NE 8.3 0.0 0.0
00:10 14.6 13.5 93 1012.7 4.5 NE 8.3 0.0 0.0
00:11 14.6 13.5 93 1012.6 8.3 NE 8.3 0.0 0.0
00:13 14.6 13.5 93 1012.8 5.4 NE 8.3 0.0 0.0
00:14 14.6 13.5 93 1012.7 5.4 NE 8.3 0.0 0.0
00:15 14.6 13.5 93 1012.6 6.9 NE 8.3 0.0 0.0
00:16 14.6 13.5 93 1012.6 6.9 NE 8.3 0.0 0.0
00:17 14.6 13.5 93 1012.7 3.1 NE 8.3 0.0 0.0
00:18 14.6 13.5 93 1012.7 3.1 NE 8.3 0.0 0.0
00:19 14.6 13.5 93 1012.7 3.1 NE 8.3 0.0 0.0
00:20 14.6 13.5 93 1012.7 4.5 N 8.3 0.0 0.0
00:21 14.7 13.6 93 1012.6 9.2 NE 11.4 0.0 0.0
00:22 14.7 13.6 93 1012.6 7.6 N 11.4 0.0 0.0
00:23 14.6 13.5 93 1012.5 4.5 NE 11.4 0.0 0.0
00:24 14.7 13.6 93 1012.6 4.5 NE 11.4 0.0 0.0
00:26 14.7 13.6 93 1012.7 7.6 NE 11.4 0.0 0.0
00:27 14.7 13.6 93 1012.8 4.5 NE 11.4 0.0 0.0
00:28 14.7 13.6 93 1012.7 4.5 NE 11.4 0.0 0.0
00:29 14.7 13.6 93 1012.7 4.5 NE 11.4 0.0 0.0
00:30 14.7 13.8 94 1012.7 7.6 NE 11.4 0.0 0.0
00:31 14.7 13.8 94 1012.8 7.6 N 9.2 0.0 0.0
00:32 14.7 13.8 94 1012.7 6.9 NE 9.2 0.0 0.0
00:33 14.7 13.8 94 1012.6 10.7 NE 10.7 0.0 0.0
00:34 14.8 13.9 94 1012.6 6.0 NE 10.7 0.0 0.0
00:35 14.8 13.9 94 1012.6 9.8 NE 10.7 0.0 0.0
00:36 14.8 13.9 94 1012.6 8.3 N 10.7 0.0 0.0
00:38 14.8 13.9 94 1012.5 7.6 NE 10.7 0.0 0.0
00:39 14.8 13.9 94 1012.7 7.6 NE 10.7 0.0 0.0
00:40 14.8 13.9 94 1012.6 9.2 NE 10.7 0.0 0.0
00:41 14.8 13.9 94 1012.6 9.2 NE 10.7 0.0 0.0
00:42 14.8 13.9 94 1012.6 7.6 N 10.7 0.0 0.0
00:43 14.9 13.9 94 1012.5 10.7 N 11.4 0.0 0.0
00:44 14.9 13.9 94 1012.5 9.2 NE 11.4 0.0 0.0
00:45 14.9 13.9 94 1012.7 7.6 NE 11.4 0.0 0.0
00:46 14.9 13.9 94 1012.6 10.7 NE 11.4 0.0 0.0
00:47 15.0 14.0 94 1012.7 8.3 N 11.4 0.0 0.0
00:48 14.9 13.9 94 1012.7 4.5 NE 11.4 0.0 0.0
00:50 15.0 14.0 94 1013.0 4.5 NE 11.4 0.0 0.0
00:51 15.0 14.0 94 1012.7 6.9 NE 11.4 0.0 0.0
00:52 15.0 14.0 94 1012.8 12.1 NE 12.1 0.0 0.0
00:53 15.0 14.0 94 1012.8 9.8 NE 12.1 0.0 0.0
00:54 15.0 14.0 94 1012.7 9.8 NE 12.1 0.0 0.0
00:55 15.0 14.0 94 1012.8 9.8 NE 12.1 0.0 0.0
00:56 15.1 14.1 94 1013.0 14.5 NE 14.5 0.0 0.0
00:57 15.1 14.1 94 1013.0 10.7 NW 14.5 0.0 0.0
00:58 15.1 14.1 94 1013.0 10.7 NW 14.5 0.0 0.0
00:59 15.1 14.1 94 1013.1 11.4 N 14.5 0.0 0.0
01:01 15.1 14.1 94 1013.1 14.5 N 14.5 0.0 0.0
01:02 15.1 14.1 94 1013.2 14.5 N 14.5 0.0 0.0
01:03 15.1 14.1 94 1013.2 14.5 N 14.5 0.0 0.0
01:04 15.1 14.1 94 1013.1 14.5 N 14.5 0.0 0.0
01:05 15.1 14.1 94 1013.3 14.5 N 14.5 0.0 0.0
01:06 15.1 14.1 94 1013.0 15.9 NE 15.9 0.0 0.0
01:07 15.0 14.0 94 1013.1 9.2 NE 15.9 0.0 0.0
01:08 15.0 14.0 94 1013.3 6.0 NW 15.9 0.0 0.0
01:09 15.0 14.0 94 1013.4 13.0 NE 15.9 0.0 0.0
01:10 15.0 14.0 94 1013.3 13.0 NE 15.9 0.0 0.0
01:12 15.0 14.0 94 1013.4 8.3 N 15.9 0.0 0.0
01:13 14.9 13.9 94 1013.3 9.2 S 15.9 0.0 0.0
01:14 14.9 13.9 94 1013.2 11.4 NE 15.9 0.0 0.0
01:15 14.9 13.9 94 1013.2 10.7 NE 15.9 0.0 0.0
01:16 14.9 13.9 94 1013.3 9.8 NW 15.9 0.0 0.0
01:17 14.8 13.9 94 1013.2 9.2 N 13.0 0.0 0.0
01:18 14.8 13.9 94 1013.3 7.6 NW 13.0 0.0 0.0
01:19 14.8 13.9 94 1013.3 3.8 NW 13.0 0.0 0.0
01:20 14.8 13.9 94 1013.1 5.4 N 13.0 0.0 0.0
01:21 14.8 13.9 94 1013.1 4.5 W 11.4 0.0 0.0
01:23 14.8 13.9 94 1013.2 10.7 E 11.4 0.0 0.0
01:24 14.8 13.9 94 1013.2 7.6 N 10.7 0.0 0.0
01:25 14.8 13.9 94 1013.2 4.5 E 10.7 0.0 0.0
01:26 14.8 13.9 94 1013.2 4.5 E 10.7 0.0 0.0
01:27 14.8 13.9 94 1013.3 9.8 SW 10.7 0.0 0.0
01:28 14.8 13.9 94 1013.3 9.2 E 10.7 0.0 0.0
01:29 14.8 13.9 94 1013.2 6.9 SE 10.7 0.0 0.0
01:30 14.8 13.9 94 1013.3 8.3 SE 10.7 0.0 0.0
01:31 14.8 14.0 95 1013.2 6.9 NE 12.1 0.0 0.0
01:32 14.8 14.0 95 1013.0 14.5 SE 14.5 0.0 0.0
01:33 14.8 14.0 95 1013.0 12.1 SE 14.5 0.0 0.0
01:35 14.7 13.9 95 1012.8 9.8 SE 14.5 0.0 0.0
01:36 14.8 14.0 95 1013.0 13.6 E 14.5 0.8 0.1
01:37 14.8 14.0 95 1012.9 13.6 SE 14.5 0.8 0.1
01:38 14.8 14.0 95 1012.8 7.6 SE 14.5 0.8 0.1
01:39 14.8 14.0 95 1013.0 15.2 SE 15.2 1.5 0.1
01:40 14.9 14.1 95 1012.8 13.0 SE 15.2 1.5 0.1
01:41 14.9 14.3 96 1012.8 14.5 NW 15.2 0.8 0.2
01:42 14.9 14.1 95 1012.8 13.0 SE 15.2 1.5 0.2
01:43 14.9 14.3 96 1012.6 11.4 SE 15.2 1.5 0.3
01:44 14.9 14.3 96 1012.6 8.3 SE 15.2 1.5 0.3
01:45 14.9 14.3 96 1012.5 6.0 SE 15.2 2.3 0.4
01:46 14.9 14.3 96 1012.6 6.0 SE 15.2 3.0 0.4
01:48 14.9 14.3 96 1012.7 6.0 SE 15.2 2.3 0.4
01:49 14.9 14.3 96 1012.7 5.4 SE 15.2 1.5 0.4
01:50 15.0 14.4 96 1012.5 8.3 SE 14.5 0.8 0.4
01:51 15.0 14.4 96 1012.8 7.6 SE 14.5 0.8 0.4
01:52 14.9 14.3 96 1012.5 7.6 SE 13.0 0.8 0.4
01:53 15.0 14.4 96 1012.6 6.9 E 11.4 0.8 0.4
01:54 15.0 14.4 96 1012.5 7.6 SE 9.2 1.5 0.5
01:55 15.0 14.4 96 1012.4 6.0 SE 9.2 1.5 0.5
01:56 15.0 14.4 96 1012.4 7.6 SE 9.2 0.8 0.5
01:57 14.9 14.3 96 1012.5 6.0 SE 8.3 0.8 0.6
01:58 14.9 14.3 96 1012.5 7.6 SE 8.3 1.5 0.6
02:00 15.0 14.4 96 1012.6 6.0 SE 7.6 1.5 0.6
02:01 14.9 14.3 96 1012.4 5.4 SE 7.6 2.3 0.7
02:02 14.9 14.3 96 1012.5 5.4 SE 7.6 2.3 0.7
02:03 14.9 14.3 96 1012.5 5.4 SE 7.6 1.5 0.7
02:04 14.9 14.3 96 1012.4 5.4 SE 7.6 1.5 0.7
02:05 14.9 14.3 96 1012.5 5.4 SE 7.6 0.8 0.7
02:07 15.0 14.4 96 1012.3 5.4 SE 7.6 1.5 0.9
02:08 14.9 14.3 96 1012.3 4.5 SE 7.6 2.3 0.9
02:09 14.9 14.3 96 1012.2 3.8 SE 6.0 3.0 0.9
02:10 14.9 14.3 96 1012.3 3.1 SE 5.4 3.0 1.0
02:11 14.9 14.3 96 1012.3 3.1 SE 5.4 3.8 1.1
02:12 14.9 14.3 96 1012.2 1.6 SE 5.4 3.0 1.1
02:13 14.9 14.3 96 1012.1 1.6 SE 5.4 3.0 1.1
02:14 14.8 14.2 96 1012.0 2.2 SE 5.4 2.3 1.2
02:16 14.9 14.3 96 1012.1 3.1 SE 5.4 4.5 1.4
02:17 14.8 14.3 97 1012.2 3.1 SE 5.4 3.8 1.4
02:18 14.9 14.3 96 1012.2 3.1 SE 4.5 3.8 1.4
02:19 14.9 14.4 97 1012.2 3.1 SE 3.8 4.5 1.6
02:20 14.9 14.4 97 1012.1 2.2 SE 3.8 5.3 1.6
02:21 14.9 14.3 96 1012.1 2.2 SE 3.8 3.8 1.7
02:22 14.9 14.4 97 1011.9 2.2 SE 3.8 4.5 1.8
02:23 14.9 14.4 97 1012.0 0.7 SE 3.8 3.8 1.8
02:24 14.8 14.3 97 1011.8 3.1 SE 3.8 4.5 1.9
02:25 14.8 14.3 97 1011.7 3.1 SE 3.8 3.0 1.9
02:26 14.8 14.3 97 1011.7 2.2 SE 3.8 2.3 1.9
02:27 14.8 14.3 97 1011.9 1.6 SE 3.8 1.5 1.9
02:29 14.8 14.3 97 1011.7 0.7 SE 3.1 0.8 2.0
02:30 14.8 14.3 97 1011.7 1.6 SE 3.1 0.8 2.0
02:31 14.8 14.3 97 1011.9 3.1 SE 3.1 1.5 2.0
02:32 14.8 14.3 97 1011.9 3.1 SE 3.1 1.5 2.0
02:33 14.8 14.3 97 1012.0 3.8 SE 3.8 1.5 2.0
02:34 14.8 14.3 97 1011.9 3.8 E 3.8 0.8 2.0
02:35 14.8 14.3 97 1011.9 3.8 E 3.8 0.8 2.0
02:36 14.8 14.3 97 1012.0 3.1 NE 3.8 0.0 2.0
02:37 14.8 14.3 97 1012.0 3.1 NE 3.8 0.0 2.0
02:38 14.8 14.3 97 1011.8 2.2 NE 3.8 0.0 2.0
02:40 14.8 14.3 97 1011.7 2.2 NE 3.8 1.5 2.1
02:41 14.8 14.3 97 1011.8 3.1 NE 3.8 1.5 2.1
02:42 14.8 14.3 97 1011.8 1.6 NE 3.8 1.5 2.1
02:43 14.8 14.3 97 1011.7 3.1 NE 3.8 1.5 2.2
02:44 14.8 14.3 97 1011.8 2.2 NE 3.8 3.0 2.3
02:45 14.8 14.3 97 1011.8 0.7 NE 3.8 1.5 2.3
02:46 14.8 14.3 97 1011.7 1.6 NE 3.1 1.5 2.3
02:47 14.8 14.3 97 1011.6 1.6 NE 3.1 1.5 2.3
02:48 14.8 14.3 97 1011.5 0.7 NE 3.1 2.3 2.3
02:49 14.8 14.3 97 1011.5 0.7 NE 3.1 0.8 2.4
02:50 14.8 14.3 97 1011.3 1.6 NE 3.1 1.5 2.4
02:51 14.8 14.3 97 1011.3 1.6 NE 3.1 1.5 2.4
02:53 14.8 14.3 97 1011.4 3.1 NE 4.5 0.8 2.4
02:54 14.8 14.3 97 1011.3 4.5 NE 4.5 1.5 2.5
02:55 14.8 14.3 97 1011.3 4.5 NE 4.5 1.5 2.5
02:56 14.8 14.3 97 1011.3 3.8 NE 4.5 1.5 2.5
02:57 14.8 14.3 97 1011.4 3.1 NE 4.5 1.5 2.5
02:58 14.8 14.3 97 1011.4 3.1 NE 5.4 2.3 2.6
02:59 14.8 14.3 97 1011.4 3.1 NE 5.4 2.3 2.6
03:00 14.8 14.5 98 1011.3 3.1 NE 5.4 1.5 2.6
03:01 14.8 14.5 98 1011.1 3.1 NE 5.4 1.5 2.6
03:02 14.8 14.5 98 1011.3 3.1 NE 5.4 1.5 2.6
03:03 14.8 14.5 98 1011.1 3.1 NE 5.4 0.8 2.6
03:04 14.8 14.5 98 1011.0 3.1 NE 5.4 0.0 2.6
03:06 14.8 14.5 98 1011.0 3.8 NE 5.4 0.0 2.8
03:07 14.8 14.5 98 1011.0 3.1 NE 5.4 1.5 2.8
03:08 14.8 14.5 98 1011.1 3.8 NE 3.8 1.5 2.8
03:09 14.8 14.5 98 1011.0 3.1 NE 3.8 1.5 2.8
03:10 14.8 14.5 98 1011.1 3.8 NE 3.8 1.5 2.8
03:11 14.8 14.5 98 1011.0 2.2 NE 3.8 2.3 2.8
03:12 14.8 14.5 98 1011.2 2.2 NE 3.8 0.8 2.8
03:13 14.8 14.5 98 1011.3 6.0 NE 6.0 0.8 2.9
03:14 14.9 14.6 98 1011.2 5.4 NE 6.0 1.5 2.9
03:15 14.9 14.6 98 1011.0 5.4 NE 6.0 1.5 2.9
03:16 14.8 14.5 98 1011.0 4.5 NE 6.0 0.8 2.9
03:17 14.9 14.6 98 1010.8 3.8 NE 6.0 0.8 2.9
03:18 14.8 14.5 98 1010.9 6.0 NE 6.0 0.8 2.9
03:20 14.9 14.6 98 1011.1 4.5 NE 6.0 0.0 2.9
03:21 14.8 14.5 98 1010.9 3.8 NE 6.0 0.0 2.9
03:22 14.8 14.5 98 1010.9 4.5 NE 6.0 0.0 2.9
03:23 14.8 14.5 98 1010.9 3.1 NE 6.0 0.0 2.9
03:24 14.8 14.5 98 1010.9 5.4 NE 6.0 0.0 2.9
03:25 14.8 14.5 98 1010.9 4.5 NE 6.0 0.0 2.9
03:26 14.8 14.5 98 1011.0 4.5 NE 6.0 0.0 2.9
03:27 14.8 14.5 98 1011.0 4.5 NE 6.0 0.0 2.9
03:28 14.8 14.5 98 1011.0 3.8 NE 6.0 0.0 2.9
03:29 14.8 14.5 98 1011.0 2.2 NE 5.4 0.0 2.9
03:30 14.8 14.5 98 1011.0 3.1 NE 5.4 0.0 2.9
03:31 14.8 14.5 98 1011.1 3.1 NE 5.4 0.0 2.9
03:33 14.8 14.5 98 1010.9 3.1 NE 5.4 0.0 2.9
03:34 14.8 14.5 98 1011.2 4.5 NE 5.4 0.0 2.9
03:35 14.8 14.5 98 1011.1 3.8 NE 4.5 0.0 2.9
03:36 14.7 14.4 98 1011.2 3.8 NE 4.5 0.0 2.9
03:37 14.7 14.4 98 1011.2 3.8 NE 4.5 0.0 2.9
03:38 14.8 14.5 98 1011.2 4.5 NE 4.5 0.0 2.9
03:39 14.7 14.4 98 1011.1 2.2 NE 4.5 0.0 2.9
03:40 14.7 14.4 98 1011.0 2.2 NE 4.5 0.0 2.9
03:41 14.7 14.4 98 1011.1 2.2 NE 4.5 0.0 2.9
03:42 14.7 14.4 98 1011.2 3.1 NE 4.5 0.0 2.9
03:43 14.7 14.4 98 1011.1 3.1 NE 4.5 0.0 2.9
03:44 14.7 14.4 98 1011.2 3.1 NE 4.5 0.0 2.9
03:46 14.7 14.4 98 1011.0 1.6 NE 4.5 0.0 2.9
03:47 14.7 14.4 98 1011.2 2.2 NE 4.5 0.0 2.9
03:48 14.7 14.4 98 1011.1 2.2 NE 3.8 0.0 2.9
03:49 14.7 14.4 98 1011.2 3.1 NE 3.8 0.0 2.9
03:50 14.6 14.3 98 1011.2 1.6 NE 3.8 0.0 2.9
03:51 14.6 14.3 98 1011.1 2.2 NE 3.1 0.0 2.9
03:52 14.6 14.3 98 1011.0 2.2 NE 3.1 0.0 2.9
03:53 14.6 14.5 99 1011.1 3.1 NE 3.1 0.0 2.9
03:55 14.6 14.3 98 1011.1 2.2 NE 3.1 0.0 2.9
03:56 14.6 14.5 99 1011.1 3.1 NE 3.8 0.0 2.9
03:57 14.6 14.3 98 1011.1 3.1 NE 3.8 0.0 2.9
03:58 14.6 14.5 99 1011.1 3.8 NE 3.8 0.0 2.9
03:59 14.6 14.5 99 1011.2 3.1 NE 3.8 0.0 2.9
04:00 14.6 14.5 99 1011.2 3.8 NE 3.8 0.0 2.9
04:01 14.6 14.5 99 1011.2 5.4 NE 5.4 0.0 2.9
04:02 14.6 14.5 99 1011.1 4.5 NE 5.4 0.0 2.9
04:03 14.6 14.5 99 1011.0 7.6 NE 7.6 0.0 2.9
04:04 14.6 14.5 99 1011.1 2.2 NE 7.6 0.0 2.9
04:05 14.6 14.5 99 1011.1 6.9 NE 7.6 0.0 2.9
04:07 14.6 14.5 99 1011.0 6.9 NE 7.6 0.0 2.9
04:08 14.6 14.5 99 1011.1 6.0 N 7.6 0.0 2.9
04:09 14.7 14.6 99 1011.0 6.0 NE 7.6 0.0 2.9
04:11 14.7 14.6 99 1010.9 7.6 NE 7.6 0.0 2.9
04:12 14.7 14.6 99 1010.9 8.3 NE 8.3 0.0 2.9
04:13 14.7 14.6 99 1010.9 6.0 NE 8.3 0.0 2.9
04:14 14.7 14.6 99 1010.8 6.0 NE 8.3 0.0 2.9
04:15 14.7 14.6 99 1010.9 5.4 NE 8.3 0.0 2.9
04:16 14.7 14.6 99 1010.8 4.5 NE 8.3 0.0 2.9
04:17 14.7 14.6 99 1010.9 4.5 NE 8.3 0.0 2.9
04:18 14.7 14.6 99 1011.0 4.5 NE 8.3 0.0 2.9
04:19 14.7 14.6 99 1011.1 4.5 NE 8.3 0.0 2.9
04:20 14.8 14.7 99 1011.1 6.0 NE 8.3 0.0 2.9
04:22 14.7 14.6 99 1011.1 6.9 NE 8.3 0.0 2.9
04:23 14.8 14.7 99 1011.1 6.9 NE 7.6 0.0 2.9
04:24 14.8 14.7 99 1011.2 6.0 NE 7.6 0.0 2.9
04:25 14.8 14.7 99 1011.2 6.0 N 7.6 0.0 2.9
04:26 14.8 14.7 99 1011.0 8.3 NE 8.3 0.0 2.9
04:27 14.8 14.7 99 1011.1 9.8 NE 9.8 0.0 2.9
04:28 14.8 14.7 99 1011.0 7.6 N 9.8 0.0 2.9
04:29 14.8 14.7 99 1011.1 9.2 NE 9.8 0.0 2.9
04:30 14.8 14.7 99 1011.0 13.0 E 13.0 0.0 2.9
04:31 14.8 14.7 99 1011.1 7.6 NE 13.0 0.0 2.9
04:32 14.8 14.7 99 1010.9 11.4 NE 13.0 0.0 2.9
04:33 14.8 14.7 99 1010.8 10.7 NE 13.0 0.0 2.9
04:34 14.8 14.7 99 1010.9 6.0 E 13.0 0.0 2.9
04:35 14.8 14.7 99 1010.8 11.4 N 13.0 0.0 2.9
04:37 14.7 14.6 99 1010.9 6.0 N 14.5 0.0 2.9
04:38 14.7 14.6 99 1010.9 10.7 N 14.5 0.0 2.9
04:39 14.6 14.5 99 1011.1 6.9 N 14.5 0.0 2.9
04:40 14.6 14.5 99 1011.0 10.7 N 14.5 0.0 2.9
04:41 14.6 14.5 99 1011.0 3.8 N 14.5 0.0 2.9
04:42 14.6 14.5 99 1010.9 10.7 N 14.5 0.0 2.9
04:43 14.5 14.4 99 1011.0 7.6 NE 14.5 0.0 2.9
04:44 14.5 14.4 99 1011.1 6.0 N 14.5 0.0 2.9
04:45 14.5 14.4 99 1011.3 6.0 NE 14.5 0.0 2.9
04:46 14.4 14.3 99 1011.1 3.1 NE 14.5 0.0 2.9
04:47 14.4 14.3 99 1010.9 12.1 NE 12.1 0.0 2.9
04:48 14.3 14.2 99 1011.0 9.2 NE 12.1 0.0 2.9
04:49 14.4 14.3 99 1011.1 7.6 N 12.1 0.0 2.9
04:50 14.3 14.2 99 1011.0 6.9 N 12.1 0.0 2.9
04:51 14.3 14.2 99 1011.1 6.0 NE 12.1 0.0 2.9
04:52 14.3 14.2 99 1011.1 9.2 N 12.1 0.0 2.9
04:53 14.2 14.1 99 1011.1 9.2 NE 12.1 0.0 2.9
04:54 14.2 14.1 99 1011.1 10.7 NE 12.1 0.0 2.9
04:55 14.2 14.1 99 1011.3 8.3 NE 12.1 0.0 2.9
04:56 14.1 14.0 99 1011.3 6.9 NE 12.1 0.0 2.9
04:57 14.1 14.0 99 1011.2 7.6 NE 12.1 0.0 2.9
04:58 14.1 14.0 99 1011.0 8.3 W 10.7 0.0 2.9
04:59 14.0 13.9 99 1011.2 9.2 NE 10.7 0.0 2.9
05:00 14.1 14.0 99 1011.3 12.1 NE 12.1 0.0 2.9
05:01 14.0 13.9 99 1011.1 10.7 N 12.1 0.0 2.9
05:02 14.0 13.9 99 1011.0 10.7 N 12.1 0.0 2.9
05:03 14.0 13.9 99 1011.0 9.2 NE 12.1 0.0 2.9
05:04 14.0 13.9 99 1011.1 10.7 N 12.1 0.0 2.9
05:05 14.0 13.9 99 1011.1 10.7 N 12.1 0.0 2.9
05:06 13.9 13.8 99 1011.2 6.9 NE 12.1 0.0 2.9
05:07 13.9 13.8 99 1011.1 8.3 NE 12.1 0.0 2.9
05:08 13.8 13.7 99 1011.1 7.6 NE 12.1 0.0 2.9
05:09 13.8 13.7 99 1011.3 9.8 NE 12.1 0.0 2.9
05:10 13.8 13.7 99 1011.3 9.8 NE 10.7 0.0 2.9
05:11 13.8 13.7 99 1011.2 6.0 NE 10.7 0.0 2.9
05:12 13.7 13.6 99 1011.4 5.4 NE 10.7 0.0 2.9
05:13 13.7 13.6 99 1011.3 9.2 NE 10.7 0.0 2.9
05:14 13.7 13.6 99 1011.2 9.2 NE 10.7 0.0 2.9
05:15 13.7 13.6 99 1011.3 6.9 NE 9.8 0.0 2.9
05:16 13.7 13.6 99 1011.3 11.4 NE 11.4 0.0 2.9
05:17 13.5 13.4 99 1011.2 6.9 NE 11.4 0.0 2.9
05:18 13.6 13.5 99 1011.3 8.3 NE 11.4 0.0 2.9
05:19 13.6 13.5 99 1011.4 8.3 NE 11.4 0.0 2.9
05:20 13.5 13.4 99 1011.4 9.2 NE 11.4 0.0 2.9
05:21 13.5 13.4 99 1011.4 9.2 NE 11.4 0.0 2.9
05:22 13.6 13.5 99 1011.4 3.8 NE 11.4 0.0 2.9
05:23 13.6 13.5 99 1011.5 5.4 NE 11.4 0.0 2.9
05:24 13.5 13.4 99 1011.4 5.4 NE 11.4 0.0 2.9
05:25 13.5 13.4 99 1011.3 6.9 NE 11.4 0.0 2.9
05:26 13.5 13.4 99 1011.5 6.9 NE 11.4 0.0 2.9
05:27 13.5 13.4 99 1011.4 5.4 NE 9.8 0.0 2.9
05:28 13.5 13.4 99 1011.5 5.4 NE 9.8 0.0 2.9
05:29 13.5 13.4 99 1011.6 3.8 NE 9.8 0.0 2.9
05:30 13.5 13.4 99 1011.4 7.6 NE 9.2 0.0 2.9
05:31 13.5 13.4 99 1011.4 8.3 NE 9.2 0.0 2.9
05:32 13.5 13.4 99 1011.4 3.8 NE 8.3 0.0 2.9
05:33 13.5 13.4 99 1011.5 8.3 NE 8.3 0.0 2.9
05:35 13.5 13.4 99 1011.4 7.6 NE 8.3 0.0 2.9
05:36 13.5 13.4 99 1011.4 8.3 NE 8.3 0.0 2.9
05:37 13.5 13.4 99 1011.4 8.3 NE 8.3 0.0 2.9
05:38 13.5 13.4 99 1011.5 5.4 NE 8.3 0.0 2.9
05:39 13.5 13.4 99 1011.5 6.9 NE 10.7 0.0 2.9
05:40 13.5 13.4 99 1011.3 4.5 NE 10.7 0.0 2.9
05:41 13.5 13.4 99 1011.5 5.4 NE 10.7 0.0 2.9
05:42 13.5 13.4 99 1011.4 7.6 NE 10.7 0.0 2.9
05:43 13.5 13.4 99 1011.4 5.4 NE 10.7 0.0 2.9
05:44 13.5 13.4 99 1011.6 8.3 NE 10.7 0.0 2.9
05:45 13.5 13.4 99 1011.6 9.8 NE 10.7 0.0 2.9
05:46 13.5 13.4 99 1011.4 8.3 NE 10.7 0.0 2.9
05:47 13.5 13.4 99 1011.5 3.8 NE 10.7 0.0 2.9
05:48 13.5 13.4 99 1011.4 6.0 NE 10.7 0.0 2.9
05:49 13.5 13.4 99 1011.4 4.5 NE 9.8 0.0 2.9
05:50 13.5 13.4 99 1011.5 7.6 NE 9.8 0.0 2.9
05:51 13.5 13.4 99 1011.5 6.9 NE 9.8 0.0 2.9
05:52 13.5 13.4 99 1011.5 7.6 NE 9.8 0.0 2.9
05:53 13.5 13.4 99 1011.6 3.8 NE 9.8 0.0 2.9
05:54 13.5 13.4 99 1011.7 6.0 NE 9.8 0.0 2.9
05:55 13.5 13.4 99 1011.6 4.5 NE 9.2 0.0 2.9
05:56 13.5 13.4 99 1011.8 6.0 NE 9.2 0.0 2.9
05:57 13.5 13.4 99 1011.7 4.5 NE 7.6 0.0 2.9
05:58 13.5 13.4 99 1011.8 4.5 NE 7.6 0.0 2.9
05:59 13.5 13.4 99 1011.7 6.0 NE 7.6 0.0 2.9
06:00 13.5 13.4 99 1011.7 4.5 NE 7.6 0.0 2.9
06:01 13.5 13.4 99 1011.7 5.4 NE 7.6 0.0 2.9
06:02 13.5 13.4 99 1011.8 4.5 NE 7.6 0.0 2.9
06:03 13.5 13.4 99 1011.8 5.4 NE 7.6 0.0 2.9
06:04 13.5 13.4 99 1011.8 5.4 NE 7.6 0.0 2.9
06:05 13.5 13.4 99 1011.8 4.5 NE 7.6 0.0 2.9
06:06 13.5 13.4 99 1011.8 5.4 NE 7.6 0.0 2.9
06:08 13.5 13.4 99 1011.9 6.0 NE 7.6 0.0 2.9
06:09 13.5 13.4 99 1011.8 1.6 NE 6.0 0.0 2.9
06:10 13.5 13.4 99 1011.8 3.8 E 6.0 0.0 2.9
06:12 13.5 13.4 99 1011.8 6.0 NE 6.0 0.0 2.9
06:13 13.5 13.4 99 1011.8 5.4 NE 6.0 0.0 2.9
06:14 13.5 13.4 99 1012.0 6.0 NE 6.0 0.0 2.9
06:15 13.5 13.4 99 1012.0 4.5 NE 6.0 0.0 2.9
06:16 13.5 13.4 99 1011.9 5.4 NE 6.0 0.0 2.9
06:17 13.5 13.4 99 1011.9 6.0 NE 6.0 0.0 2.9
06:18 13.5 13.4 99 1011.8 6.0 NE 6.0 0.0 2.9
06:19 13.5 13.4 99 1011.8 6.9 NE 6.9 0.0 2.9
06:20 13.5 13.4 99 1011.8 2.2 NE 9.2 0.0 2.9
06:21 13.5 13.4 99 1011.8 2.2 NE 9.2 0.0 2.9
06:22 13.5 13.4 99 1011.9 6.0 N 9.2 0.0 2.9
06:23 13.5 13.4 99 1011.7 7.6 NE 9.2 0.0 2.9
06:24 13.5 13.4 99 1011.8 5.4 NE 9.2 0.0 2.9
06:25 13.5 13.4 99 1011.9 3.1 NE 9.2 0.0 2.9
06:26 13.5 13.4 99 1011.9 5.4 NE 9.2 0.0 2.9
06:27 13.5 13.4 99 1012.0 2.2 NE 9.2 0.0 2.9
06:28 13.5 13.4 99 1012.2 3.8 NE 9.2 0.0 2.9
06:30 13.6 13.5 99 1012.0 6.9 NE 9.2 0.0 2.9
06:31 13.5 13.4 99 1012.0 3.8 NE 7.6 0.0 2.9
06:32 13.5 13.4 99 1011.9 6.0 NE 7.6 0.0 2.9
06:33 13.6 13.5 99 1012.1 3.1 NE 7.6 0.0 2.9
06:34 13.6 13.5 99 1012.1 3.8 NE 6.9 0.0 2.9
06:35 13.6 13.5 99 1012.0 6.0 NE 6.9 0.0 2.9
06:36 13.6 13.5 99 1012.0 6.0 NE 6.9 0.0 2.9
06:37 13.6 13.5 99 1012.0 8.3 NE 8.3 0.0 2.9
06:38 13.6 13.5 99 1012.0 4.5 NE 8.3 0.0 2.9
06:39 13.6 13.5 99 1012.0 5.4 NE 8.3 0.0 2.9
06:40 13.6 13.5 99 1012.1 3.1 NE 8.3 0.0 2.9
06:41 13.6 13.5 99 1012.2 4.5 NE 8.3 0.0 2.9
06:42 13.6 13.5 99 1012.2 3.8 NE 8.3 0.0 2.9
06:43 13.6 13.5 99 1012.2 3.1 NE 8.3 0.0 2.9
06:44 13.6 13.5 99 1012.2 3.8 NE 8.3 0.0 2.9
06:45 13.6 13.5 99 1012.3 3.1 NE 8.3 0.0 2.9
06:46 13.6 13.5 99 1012.3 3.8 NE 8.3 0.0 2.9
06:47 13.7 13.6 99 1012.4 3.8 NE 6.0 0.0 2.9
06:48 13.7 13.6 99 1012.4 6.0 NE 6.0 0.0 2.9
06:49 13.7 13.6 99 1012.3 3.8 NE 6.0 0.0 2.9
06:50 13.7 13.6 99 1012.3 4.5 NE 6.0 0.0 2.9
06:51 13.7 13.6 99 1012.2 2.2 NE 6.0 0.0 2.9
06:52 13.7 13.6 99 1012.3 5.4 NE 6.0 0.0 2.9
06:53 13.7 13.6 99 1012.3 3.8 NE 6.0 0.0 2.9
06:54 13.7 13.6 99 1012.2 4.5 NE 6.0 0.0 2.9
06:55 13.7 13.6 99 1012.3 2.2 NE 6.0 0.0 2.9
06:56 13.8 13.7 99 1012.4 3.8 NE 6.0 0.0 2.9
06:57 13.8 13.7 99 1012.3 7.6 NE 7.6 0.0 2.9
06:58 13.8 13.7 99 1012.4 6.0 NE 7.6 0.0 2.9
06:59 13.8 13.7 99 1012.3 4.5 NE 7.6 0.0 2.9
07:00 13.8 13.7 99 1012.3 3.8 NE 7.6 0.0 2.9
07:01 13.8 13.7 99 1012.3 3.8 NE 7.6 0.0 2.9
07:03 13.8 13.7 99 1012.3 5.4 NE 7.6 0.0 2.9
07:04 13.9 13.8 99 1012.2 6.0 NE 7.6 0.0 2.9
07:05 13.8 13.7 99 1012.3 5.4 NE 7.6 0.0 2.9
07:06 13.9 13.8 99 1012.2 5.4 NE 7.6 0.0 2.9
07:07 13.9 13.8 99 1012.3 5.4 NE 7.6 0.0 2.9
07:08 13.9 13.8 99 1012.2 3.8 NE 6.0 0.0 2.9
07:09 13.9 13.8 99 1012.1 3.8 NE 6.0 0.0 2.9
07:10 13.9 13.8 99 1012.2 4.5 NE 6.0 0.0 2.9
07:11 13.9 13.8 99 1012.1 7.6 NE 7.6 0.0 2.9
07:12 13.9 13.8 99 1012.1 6.9 NE 7.6 0.0 2.9
07:13 13.9 13.8 99 1012.0 7.6 NE 7.6 0.0 2.9
07:14 13.9 13.8 99 1012.1 3.1 NE 7.6 0.0 2.9
07:15 13.9 13.8 99 1012.1 3.1 NE 7.6 0.0 2.9
07:16 13.9 13.8 99 1012.1 4.5 NE 7.6 0.0 2.9
07:17 13.9 13.8 99 1012.0 7.6 NE 7.6 0.0 2.9
07:18 13.9 13.8 99 1012.0 3.8 NE 7.6 0.0 2.9
07:19 14.0 13.9 99 1012.0 3.8 NE 7.6 0.0 2.9
07:20 14.0 13.9 99 1012.0 4.5 NE 7.6 0.0 2.9
07:21 14.0 13.9 99 1012.0 7.6 NE 7.6 0.0 2.9
07:22 14.0 13.9 99 1011.9 4.5 NE 7.6 0.0 2.9
07:23 14.0 13.9 99 1011.9 3.1 NE 7.6 0.0 2.9
07:24 14.0 13.9 99 1011.9 1.6 NE 7.6 0.0 2.9
07:25 14.0 13.9 99 1012.1 4.5 NE 7.6 0.0 2.9
07:26 14.0 13.9 99 1012.0 6.9 N 7.6 0.0 2.9
07:27 14.0 13.9 99 1012.0 2.2 N 7.6 0.0 2.9
07:28 14.0 13.9 99 1012.0 2.2 N 7.6 0.0 2.9
07:29 14.1 14.0 99 1012.1 3.8 N 7.6 0.0 2.9
07:30 14.0 13.9 99 1012.1 2.2 N 7.6 0.0 2.9
07:31 14.1 14.0 99 1012.0 2.2 N 7.6 0.0 2.9
07:32 14.1 14.0 99 1012.2 3.8 N 6.9 0.0 2.9
07:33 14.1 14.0 99 1012.0 6.9 NE 6.9 0.0 2.9
07:35 14.1 14.0 99 1012.2 3.8 NE 6.9 0.0 2.9
07:36 14.1 14.0 99 1012.2 3.8 NE 6.9 0.0 2.9
07:37 14.1 14.0 99 1012.1 3.1 NE 6.9 0.0 2.9
07:38 14.2 14.1 99 1012.2 1.6 NE 6.9 0.0 2.9
07:39 14.2 14.1 99 1012.2 3.1 NE 6.9 0.0 2.9
07:40 14.2 14.1 99 1012.3 3.8 NE 6.9 0.0 2.9
07:41 14.2 14.1 99 1012.3 2.2 E 6.9 0.0 2.9
07:42 14.2 14.1 99 1012.1 2.2 E 6.9 0.0 2.9
07:43 14.2 14.1 99 1012.1 3.1 NE 6.9 0.0 2.9
07:44 14.2 14.1 99 1012.1 3.8 NE 5.4 0.0 2.9
07:45 14.3 14.2 99 1012.1 3.1 NE 4.5 0.0 2.9
07:46 14.3 14.2 99 1012.3 3.1 NE 4.5 0.0 2.9
07:47 14.3 14.2 99 1012.3 5.4 NE 5.4 0.0 2.9
07:48 14.3 14.2 99 1012.3 1.6 NE 5.4 0.0 2.9
07:49 14.3 14.2 99 1012.2 3.1 NE 5.4 0.0 2.9
07:50 14.3 14.2 99 1012.4 3.8 NE 5.4 0.0 2.9
07:51 14.3 14.2 99 1012.3 4.5 NE 5.4 0.0 2.9
07:52 14.4 14.3 99 1012.3 2.2 NE 5.4 0.0 2.9
07:53 14.4 14.3 99 1012.3 3.1 NE 5.4 0.0 2.9
07:54 14.4 14.3 99 1012.5 5.4 NE 5.4 0.0 2.9
07:55 14.4 14.3 99 1012.4 4.5 NE 5.4 0.0 2.9
07:56 14.4 14.3 99 1012.3 3.1 S 5.4 0.0 2.9
07:57 14.4 14.3 99 1012.5 3.8 SE 5.4 0.0 2.9
07:58 14.4 14.3 99 1012.3 4.5 SE 5.4 0.0 2.9
07:59 14.4 14.3 99 1012.5 4.5 SE 5.4 0.0 2.9
08:00 14.4 14.3 99 1012.5 3.1 SE 5.4 0.0 2.9
08:01 14.4 14.3 99 1012.5 3.1 SE 5.4 0.0 2.9
08:02 14.4 14.3 99 1012.5 3.1 S 5.4 0.0 2.9
08:04 14.3 14.2 99 1012.7 3.8 SE 5.4 0.0 2.9
08:06 14.3 14.2 99 1012.5 4.5 NE 5.4 0.0 2.9
08:07 14.3 14.2 99 1012.6 2.2 NE 5.4 0.0 2.9
08:08 14.3 14.2 99 1012.6 6.0 NW 6.0 0.0 2.9
08:09 14.3 14.2 99 1012.6 4.5 NW 6.0 0.0 2.9
08:11 14.3 14.2 99 1012.5 3.8 NE 6.0 0.0 2.9
08:12 14.3 14.2 99 1012.6 3.1 NE 6.0 0.0 2.9
08:13 14.3 14.2 99 1012.5 2.2 NE 6.0 0.0 2.9
08:14 14.3 14.2 99 1012.4 3.1 NE 6.0 0.0 2.9
08:15 14.3 14.2 99 1012.6 3.1 SE 6.0 0.0 2.9
08:16 14.3 14.2 99 1012.6 3.1 SE 6.0 0.0 2.9
08:17 14.3 14.2 99 1012.5 3.1 SE 6.0 0.0 2.9
08:18 14.3 14.2 99 1012.7 4.5 N 4.5 0.0 2.9
08:19 14.3 14.2 99 1012.7 2.2 N 4.5 0.0 2.9
08:20 14.3 14.2 99 1012.6 5.4 NE 5.4 0.0 2.9
08:21 14.4 14.3 99 1012.5 3.1 NE 5.4 0.0 2.9
08:23 14.3 14.2 99 1012.6 3.1 NE 5.4 0.0 2.9
08:24 14.3 14.2 99 1012.5 2.2 NE 5.4 0.0 2.9
08:25 14.3 14.2 99 1012.5 2.2 NE 5.4 0.0 2.9
08:26 14.3 14.2 99 1012.6 2.2 E 5.4 0.0 2.9
08:27 14.3 14.2 99 1012.5 2.2 E 5.4 0.0 2.9
08:28 14.4 14.3 99 1012.7 3.8 SE 5.4 0.0 2.9
08:29 14.3 14.2 99 1012.7 2.2 SE 5.4 0.0 2.9
08:30 14.3 14.2 99 1012.6 3.8 SE 5.4 0.0 2.9
08:31 14.4 14.3 99 1012.5 3.8 N 3.8 0.0 2.9
08:32 14.4 14.3 99 1012.6 5.4 E 5.4 0.0 2.9
08:33 14.4 14.3 99 1012.7 4.5 SE 5.4 0.0 2.9
08:34 14.4 14.3 99 1012.6 3.1 SE 5.4 0.0 2.9
08:35 14.4 14.3 99 1012.6 3.1 SE 5.4 0.0 2.9
08:36 14.4 14.3 99 1012.7 3.8 N 5.4 0.0 2.9
08:37 14.4 14.3 99 1012.6 3.8 N 5.4 0.0 2.9
08:38 14.4 14.3 99 1012.7 3.1 E 5.4 0.0 2.9
08:39 14.5 14.4 99 1012.6 4.5 NE 5.4 0.0 2.9
08:40 14.5 14.4 99 1012.8 5.4 NE 5.4 0.0 2.9
08:41 14.5 14.4 99 1012.7 3.1 E 5.4 0.0 2.9
08:42 14.5 14.4 99 1012.7 4.5 SE 5.4 0.0 2.9
08:43 14.5 14.4 99 1012.5 5.4 SE 6.0 0.0 2.9
08:44 14.5 14.4 99 1012.7 3.8 E 6.0 0.0 2.9
08:45 14.5 14.4 99 1012.7 3.8 SE 6.0 0.0 2.9
08:46 14.5 14.4 99 1012.8 3.8 SE 6.0 0.0 2.9
08:47 14.5 14.4 99 1012.8 3.8 NE 6.0 0.0 2.9
08:48 14.5 14.4 99 1012.6 3.8 NE 6.0 0.0 2.9
08:49 14.5 14.4 99 1012.7 3.1 E 6.0 0.0 2.9
08:50 14.5 14.4 99 1012.6 3.8 NE 6.0 0.0 2.9
08:51 14.5 14.4 99 1012.7 3.8 N 6.0 0.0 2.9
08:52 14.5 14.4 99 1012.7 3.1 E 6.0 0.0 2.9
08:53 14.5 14.4 99 1012.7 3.1 NE 5.4 0.0 2.9
08:55 14.5 14.4 99 1012.6 3.1 E 3.8 0.0 2.9
08:56 14.5 14.4 99 1012.6 3.1 NE 3.8 0.0 2.9
08:57 14.5 14.4 99 1012.5 2.2 E 3.8 0.0 2.9
08:58 14.5 14.4 99 1012.5 4.5 SE 4.5 0.0 2.9
08:59 14.6 14.5 99 1012.4 4.5 SE 4.5 0.0 2.9
09:00 14.6 14.5 99 1012.6 2.2 NE 4.5 0.0 2.9
09:01 14.6 14.5 99 1012.5 2.2 NE 4.5 0.0 2.9
09:02 14.6 14.5 99 1012.7 3.8 E 4.5 0.0 2.9
09:03 14.6 14.5 99 1012.7 3.8 E 4.5 0.0 2.9
09:04 14.6 14.5 99 1012.7 2.2 E 4.5 0.0 2.9
09:05 14.6 14.5 99 1012.7 3.8 N 4.5 0.0 2.9
09:06 14.6 14.5 99 1012.8 4.5 SE 4.5 0.0 2.9
09:07 14.6 14.5 99 1012.7 3.8 SE 4.5 0.0 2.9
09:08 14.6 14.5 99 1012.6 2.2 NE 4.5 0.0 2.9
09:09 14.6 14.5 99 1012.8 3.8 N 4.5 0.0 2.9
09:11 14.7 14.6 99 1012.9 3.8 E 4.5 0.0 2.9
09:12 14.7 14.6 99 1012.7 4.5 SE 4.5 0.0 2.9
09:13 14.7 14.6 99 1012.8 1.6 E 5.4 0.0 2.9
09:14 14.6 14.5 99 1012.8 3.8 NE 5.4 0.0 2.9
09:16 14.7 14.6 99 1012.9 4.5 SE 6.0 0.0 2.9
09:17 14.6 14.5 99 1012.8 4.5 E 6.0 0.0 2.9
09:19 14.7 14.6 99 1012.7 6.0 SE 6.0 0.0 2.9
09:20 14.6 14.5 99 1012.8 3.1 SE 6.0 0.0 2.9
09:21 14.7 14.6 99 1012.8 6.0 SE 6.0 0.0 2.9
09:22 14.7 14.6 99 1012.8 4.5 SE 6.0 0.0 2.9
09:23 14.7 14.6 99 1012.8 5.4 E 6.0 0.0 2.9
09:25 14.7 14.6 99 1013.0 6.0 SE 6.0 0.0 2.9
09:26 14.7 14.6 99 1012.9 6.0 E 6.0 0.0 2.9
09:27 14.7 14.6 99 1012.8 6.9 SE 6.9 0.0 2.9
09:28 14.7 14.6 99 1012.8 3.1 SE 6.9 0.0 2.9
09:29 14.7 14.6 99 1012.8 3.8 SE 6.9 0.0 2.9
09:30 14.7 14.6 99 1012.9 6.0 SE 6.9 0.0 2.9
09:31 14.7 14.6 99 1013.0 6.0 SE 6.9 0.0 2.9
09:32 14.7 14.6 99 1012.9 5.4 SE 6.9 0.0 2.9
09:33 14.7 14.6 99 1012.9 3.8 SE 6.9 0.0 2.9
09:34 14.7 14.6 99 1012.9 3.8 SE 6.9 0.0 2.9
09:35 14.7 14.6 99 1013.0 3.8 SE 6.9 0.0 2.9
09:37 14.7 14.6 99 1012.8 3.8 SE 6.9 0.0 2.9
09:38 14.7 14.6 99 1012.9 6.9 SE 6.9 0.0 2.9
09:39 14.7 14.6 99 1012.9 5.4 SE 6.9 0.0 2.9
09:40 14.7 14.6 99 1012.9 6.9 SE 6.9 0.0 2.9
09:41 14.7 14.6 99 1013.0 3.1 SE 6.9 0.0 2.9
09:42 14.7 14.6 99 1013.0 9.2 NE 9.2 0.0 2.9
09:43 14.7 14.6 99 1012.9 5.4 SE 9.2 0.0 2.9
09:44 14.7 14.6 99 1013.0 6.0 SE 9.2 0.0 2.9
09:45 14.7 14.6 99 1013.1 4.5 E 9.2 0.0 2.9
09:46 14.7 14.6 99 1012.9 6.0 SE 9.2 0.0 2.9
09:47 14.7 14.6 99 1013.1 10.7 SE 10.7 0.0 2.9
09:48 14.7 14.6 99 1013.0 8.3 NW 10.7 0.0 2.9
09:49 14.7 14.6 99 1013.1 7.6 SE 10.7 0.0 2.9
09:50 14.7 14.6 99 1013.0 8.3 SE 10.7 0.0 2.9
09:51 14.7 14.6 99 1013.0 7.6 SE 10.7 0.0 2.9
09:52 14.7 14.6 99 1013.1 8.3 SE 10.7 0.0 2.9
09:53 14.7 14.6 99 1013.1 10.7 SE 10.7 0.0 2.9
09:54 14.6 14.5 99 1013.0 9.2 SE 10.7 0.0 2.9
09:55 14.7 14.6 99 1013.2 9.8 SE 11.4 0.0 2.9
09:56 14.7 14.6 99 1013.2 9.8 SE 11.4 0.0 2.9
09:58 14.7 14.6 99 1013.0 5.4 SE 11.4 0.0 2.9
09:59 14.7 14.6 99 1013.0 9.8 SE 11.4 0.0 2.9
10:00 14.7 14.6 99 1013.1 9.2 SE 11.4 0.0 2.9
10:01 14.7 14.6 99 1013.3 6.9 SE 11.4 0.0 2.9
10:02 14.7 14.6 99 1013.2 10.7 SE 11.4 0.0 2.9
10:03 14.7 14.6 99 1013.1 9.2 SE 11.4 0.0 2.9
10:04 14.7 14.6 99 1013.1 7.6 SE 11.4 0.0 2.9
10:05 14.7 14.6 99 1013.1 6.9 SE 11.4 0.0 2.9
10:06 14.7 14.6 99 1013.1 7.6 SE 10.7 0.0 2.9
10:07 14.7 14.6 99 1013.2 6.9 SE 10.7 0.0 2.9
10:08 14.7 14.6 99 1013.2 6.9 SE 10.7 0.0 2.9
10:09 14.8 14.7 99 1013.1 9.2 SE 10.7 0.0 2.9
10:11 14.8 14.7 99 1013.2 8.3 SE 10.7 0.0 2.9
10:12 14.8 14.7 99 1013.3 8.3 SE 10.7 0.0 2.9
10:13 14.9 14.8 99 1013.2 9.8 SE 10.7 0.0 2.9
10:15 14.9 14.8 99 1013.3 11.4 SE 11.4 0.0 2.9
10:16 14.9 14.8 99 1013.3 10.7 E 11.4 0.0 2.9
10:17 14.9 14.8 99 1013.3 9.2 S 11.4 0.0 2.9
10:18 15.0 14.9 99 1013.3 6.0 SE 11.4 0.0 2.9
10:19 15.0 14.9 99 1013.3 6.0 SE 11.4 0.0 2.9
10:20 15.0 14.9 99 1013.3 8.3 SE 11.4 0.0 2.9
10:21 15.0 14.9 99 1013.3 7.6 SE 11.4 0.0 2.9
10:22 15.0 14.9 99 1013.3 6.9 E 11.4 0.0 2.9
10:23 15.1 15.0 99 1013.2 8.3 SE 11.4 0.0 2.9
10:24 15.1 15.0 99 1013.4 9.8 SE 11.4 0.0 2.9
10:25 15.2 15.1 99 1013.3 11.4 SE 11.4 0.0 2.9
10:26 15.2 15.1 99 1013.4 7.6 E 11.4 0.0 2.9
10:27 15.3 15.2 99 1013.4 6.0 SE 11.4 0.0 2.9
10:28 15.3 15.2 99 1013.4 8.3 SE 11.4 0.0 2.9
10:30 15.3 15.2 99 1013.4 8.3 SE 11.4 0.0 2.9
10:31 15.4 15.3 99 1013.3 6.0 SE 11.4 0.0 2.9
10:32 15.3 15.2 99 1013.4 9.8 SE 11.4 0.0 2.9
10:33 15.4 15.3 99 1013.5 6.0 SE 11.4 0.0 2.9
10:34 15.4 15.3 99 1013.3 6.0 SE 11.4 0.0 2.9
10:35 15.4 15.3 99 1013.4 8.3 SE 11.4 0.0 2.9
10:36 15.4 15.3 99 1013.3 5.4 SE 9.8 0.0 2.9
10:37 15.5 15.4 99 1013.4 6.9 SE 9.8 0.0 2.9
10:38 15.5 15.4 99 1013.4 6.9 S 9.8 0.0 2.9
10:39 15.6 15.5 99 1013.5 8.3 SE 9.8 0.0 2.9
10:40 15.6 15.5 99 1013.5 6.9 SE 9.8 0.0 2.9
10:41 15.6 15.5 99 1013.5 7.6 SE 9.8 0.0 2.9
10:42 15.7 15.6 99 1013.5 6.9 SE 9.2 0.0 2.9
10:44 15.7 15.6 99 1013.6 9.2 SE 9.2 0.0 2.9
10:45 15.8 15.7 99 1013.3 4.5 SE 9.2 0.0 2.9
10:46 15.8 15.7 99 1013.5 5.4 SE 9.2 0.0 2.9
10:47 15.8 15.7 99 1013.5 5.4 E 9.2 0.0 2.9
10:48 15.9 15.8 99 1013.5 7.6 SE 9.2 0.0 2.9
10:49 15.9 15.8 99 1013.6 4.5 SE 9.2 0.0 2.9
10:50 15.9 15.8 99 1013.5 5.4 SE 9.2 0.0 2.9
10:51 15.9 15.8 99 1013.6 6.0 NE 9.2 0.0 2.9
10:52 15.9 15.8 99 1013.5 4.5 SE 9.2 0.0 2.9
10:53 16.0 15.9 99 1013.6 6.9 NE 9.2 0.0 2.9
10:54 16.0 15.9 99 1013.5 6.0 N 8.3 0.0 2.9
10:56 16.0 15.9 99 1013.6 9.2 SE 9.2 0.0 2.9
10:57 16.0 15.9 99 1013.8 12.1 SE 12.1 0.0 2.9
10:58 15.9 15.8 99 1013.6 8.3 SE 12.1 0.0 2.9
10:59 15.9 15.8 99 1013.5 8.3 E 12.1 0.0 2.9
11:00 15.9 15.8 99 1013.6 9.2 SE 12.1 0.0 2.9
11:01 15.9 15.8 99 1013.5 9.8 E 12.1 0.0 2.9
11:02 15.9 15.8 99 1013.8 8.3 SE 12.1 0.0 2.9
11:03 15.9 15.8 99 1013.6 5.4 E 12.1 0.0 2.9
11:04 15.9 15.8 99 1013.6 6.0 NE 12.1 0.0 2.9
11:05 15.9 15.8 99 1013.8 9.8 SE 12.1 0.0 2.9
11:06 15.9 15.8 99 1013.8 9.8 SE 12.1 0.0 2.9
11:07 15.8 15.7 99 1013.8 7.6 S 12.1 0.0 2.9
11:09 15.8 15.7 99 1013.8 8.3 SE 9.8 0.0 2.9
11:10 15.8 15.7 99 1013.7 9.2 E 9.8 0.0 2.9
11:12 15.9 15.8 99 1013.8 11.4 SE 11.4 0.0 2.9
11:14 15.8 15.7 99 1013.8 9.2 NE 11.4 0.0 2.9
11:16 15.8 15.7 99 1013.8 10.7 SE 11.4 0.0 2.9
11:18 15.7 15.6 99 1013.8 6.9 SE 11.4 0.0 2.9
11:20 15.7 15.6 99 1013.8 5.4 E 11.4 0.0 2.9
11:22 15.7 15.6 99 1013.8 10.7 SE 11.4 0.0 2.9
11:25 15.7 15.6 99 1013.8 9.8 E 11.4 0.0 2.9
11:27 15.7 15.6 99 1013.9 6.9 SE 11.4 0.0 2.9
11:29 15.7 15.6 99 1013.7 10.7 SE 10.7 0.0 2.9
11:31 15.8 15.7 99 1013.8 8.3 SE 10.7 0.0 2.9
11:33 15.8 15.7 99 1013.8 6.0 SE 10.7 0.0 2.9
11:35 15.9 15.8 99 1013.9 6.0 SE 10.7 0.0 2.9
11:37 15.9 15.8 99 1013.8 9.2 SE 10.7 0.0 2.9
11:39 15.9 15.8 99 1013.8 11.4 S 11.4 0.0 2.9
11:42 15.8 15.7 99 1014.0 8.3 SE 12.1 0.0 2.9
11:44 15.8 15.7 99 1014.0 7.6 SE 13.0 0.0 2.9
11:46 15.8 15.7 99 1014.0 9.2 SE 13.0 0.0 2.9
11:47 15.8 15.7 99 1013.9 9.2 SE 13.0 0.0 2.9
11:48 15.7 15.6 99 1014.0 6.0 SE 13.0 0.0 2.9
11:50 15.7 15.6 99 1013.9 6.9 S 13.0 0.0 2.9
11:51 15.7 15.6 99 1014.0 9.2 SE 13.0 0.0 2.9
11:52 15.7 15.6 99 1014.0 11.4 SE 13.0 0.0 2.9
11:53 15.7 15.6 99 1014.0 8.3 E 11.4 0.0 2.9
11:55 15.6 15.5 99 1014.0 10.7 E 11.4 0.0 2.9
11:56 15.6 15.5 99 1014.0 8.3 SE 11.4 0.0 2.9
11:57 15.6 15.5 99 1014.0 8.3 SE 11.4 0.0 2.9
11:58 15.6 15.5 99 1014.0 11.4 E 11.4 0.0 2.9
12:00 15.5 15.4 99 1014.1 6.9 NE 11.4 0.0 2.9
12:01 15.5 15.4 99 1014.1 10.7 SE 11.4 0.0 2.9
12:02 15.5 15.4 99 1014.0 8.3 SW 11.4 0.0 2.9
12:04 15.5 15.4 99 1014.0 7.6 SE 11.4 0.0 2.9
12:05 15.5 15.4 99 1014.2 9.8 N 11.4 0.0 2.9
12:06 15.5 15.4 99 1014.1 11.4 SE 11.4 0.0 2.9
12:07 15.5 15.4 99 1014.2 8.3 SE 11.4 0.0 2.9
12:08 15.6 15.5 99 1014.1 8.3 SE 11.4 0.0 2.9
12:09 15.6 15.5 99 1014.2 9.2 E 11.4 0.0 2.9
12:11 15.6 15.5 99 1014.2 7.6 SE 11.4 0.0 2.9
12:12 15.6 15.5 99 1014.2 10.7 SE 11.4 0.0 2.9
12:13 15.6 15.5 99 1014.1 6.9 SE 11.4 0.0 2.9
12:15 15.6 15.5 99 1014.2 10.7 SE 12.1 0.0 2.9
12:16 15.6 15.5 99 1014.1 9.2 SE 12.1 0.0 2.9
12:18 15.6 15.5 99 1014.1 6.0 SE 12.1 0.0 2.9
12:19 15.7 15.6 99 1014.1 6.0 SE 12.1 0.0 2.9
12:20 15.7 15.6 99 1014.2 10.7 SE 12.1 0.0 2.9
12:21 15.7 15.6 99 1014.1 9.2 E 12.1 0.0 2.9
12:22 15.8 15.7 99 1014.2 9.8 SE 12.1 0.0 2.9
12:24 15.8 15.7 99 1014.2 8.3 SE 10.7 0.0 2.9
12:25 15.8 15.7 99 1014.2 9.2 SE 10.7 0.0 2.9
12:26 15.8 15.7 99 1014.1 6.0 E 10.7 0.0 2.9
12:28 15.9 15.8 99 1014.2 8.3 S 10.7 0.0 2.9
12:29 16.0 15.9 99 1014.1 8.3 SE 10.7 0.0 2.9
12:30 16.0 15.9 99 1014.2 8.3 SE 10.7 0.0 2.9
12:31 16.0 15.9 99 1014.1 7.6 SE 10.7 0.0 2.9
12:32 16.0 15.9 99 1014.2 8.3 SE 9.8 0.0 2.9
12:33 16.0 15.9 99 1014.2 7.6 SE 9.2 0.0 2.9
12:34 16.0 15.9 99 1014.1 15.2 SE 15.2 0.0 2.9
12:35 16.0 15.9 99 1014.2 9.2 E 15.2 0.0 2.9
12:36 16.0 15.9 99 1014.2 8.3 SE 15.2 0.0 2.9
12:37 16.0 15.9 99 1014.1 7.6 SE 15.2 0.0 2.9
12:39 16.0 15.9 99 1014.2 13.0 SE 15.2 0.0 2.9
12:40 16.0 15.9 99 1014.3 9.2 E 15.2 0.0 2.9
12:41 16.0 15.9 99 1014.3 6.9 SE 15.2 0.0 2.9
12:43 16.0 15.9 99 1014.3 9.2 W 15.2 0.0 2.9
12:44 16.0 15.9 99 1014.2 9.8 SE 13.0 0.0 2.9
12:45 16.0 15.9 99 1014.2 7.6 E 13.0 0.0 2.9
12:46 16.0 15.9 99 1014.3 9.2 SE 13.0 0.0 2.9
12:47 16.1 16.0 99 1014.3 7.6 SE 13.0 0.0 2.9
12:49 16.1 16.0 99 1014.2 6.9 SE 11.4 0.0 2.9
12:50 16.2 16.1 99 1014.2 6.9 NE 10.7 0.0 2.9
12:51 16.2 16.1 99 1014.2 8.3 SE 10.7 0.0 2.9
12:52 16.3 16.2 99 1014.3 7.6 SE 10.7 0.0 2.9
12:53 16.3 16.2 99 1014.2 9.2 NE 10.7 0.0 2.9
12:54 16.5 16.4 99 1014.2 9.2 SE 10.7 0.0 2.9
12:55 16.5 16.4 99 1014.3 12.1 SE 12.1 0.0 2.9
12:56 16.5 16.4 99 1014.3 9.8 E 12.1 0.0 2.9
12:57 16.5 16.4 99 1014.3 10.7 E 12.1 0.0 2.9
12:58 16.6 16.5 99 1014.2 9.2 NE 12.1 0.0 2.9
12:59 16.6 16.5 99 1014.2 6.9 SE 12.1 0.0 2.9
13:00 16.7 16.6 99 1014.2 9.2 SE 12.1 0.0 2.9
13:02 16.7 16.6 99 1014.2 6.0 SE 12.1 0.0 2.9
13:03 16.7 16.6 99 1014.2 6.0 SE 12.1 0.0 2.9
13:04 16.7 16.6 99 1014.3 6.0 SE 12.1 0.0 2.9
13:05 16.7 16.6 99 1014.4 6.0 SE 12.1 0.0 2.9
13:06 16.7 16.6 99 1014.3 6.0 SE 10.7 0.0 2.9
13:07 16.9 16.8 99 1014.3 9.2 SE 10.7 0.8 3.0
13:08 16.8 16.7 99 1014.4 6.9 NE 9.2 0.8 3.0
13:09 16.9 16.8 99 1014.4 6.9 S 9.2 0.8 3.0
13:10 16.8 16.7 99 1014.4 9.8 SE 9.8 0.8 3.0
13:11 16.8 16.7 99 1014.3 9.8 SE 9.8 0.8 3.0
13:12 16.7 16.6 99 1014.4 6.9 SE 9.8 0.0 3.0
13:13 16.7 16.6 99 1014.4 9.8 SE 9.8 0.0 3.0
13:14 16.7 16.6 99 1014.4 9.2 SE 9.8 0.0 3.0
13:15 16.8 16.7 99 1014.4 8.3 SE 9.8 0.0 3.0
13:16 16.9 16.8 99 1014.4 11.4 SE 11.4 0.0 3.0
13:18 17.0 16.9 99 1014.4 8.3 SE 11.4 0.0 3.0
13:19 17.2 17.1 99 1014.3 6.9 SE 11.4 0.0 3.0
13:20 17.3 17.2 99 1014.3 9.8 NNE 11.4 0.0 3.0
13:21 17.4 17.3 99 1014.3 8.3 N 11.4 0.0 3.0
13:22 17.5 17.4 99 1014.4 9.2 SE 11.4 0.0 3.0
13:23 17.6 17.5 99 1014.4 8.3 SE 11.4 0.0 3.0
13:24 17.7 17.6 99 1014.3 9.8 SE 11.4 0.0 3.0
13:25 17.8 17.7 99 1014.4 12.1 SE 12.1 0.0 3.0
13:27 17.9 17.8 99 1014.4 9.2 SE 12.1 0.0 3.0
13:28 18.0 17.7 98 1014.3 13.0 SE 13.0 0.0 3.0
13:29 18.1 17.8 98 1014.3 10.7 SE 13.0 0.0 3.0
13:30 18.1 17.6 97 1014.3 10.7 NE 13.0 0.0 3.0
13:31 18.2 17.7 97 1014.3 10.7 SE 13.0 0.0 3.0
13:32 18.3 17.8 97 1014.2 12.1 N 13.0 0.0 3.0
13:33 18.4 17.8 96 1014.3 8.3 SE 13.0 0.0 3.0
13:34 18.5 17.9 96 1014.4 6.0 NE 13.0 0.0 3.0
13:35 18.5 17.7 95 1014.4 9.8 SE 13.0 0.0 3.0
13:36 18.5 17.7 95 1014.4 8.3 SE 13.0 0.0 3.0
13:37 18.7 17.7 94 1014.3 9.2 S 13.0 0.0 3.0
13:38 18.7 17.7 94 1014.2 7.6 S 12.1 0.0 3.0
13:40 18.8 17.8 94 1014.2 8.3 SE 12.1 0.0 3.0
13:41 18.8 17.7 93 1014.2 9.2 SE 12.1 0.0 3.0
13:42 18.8 17.7 93 1014.2 10.7 SE 12.1 0.0 3.0
13:43 18.8 17.7 93 1014.2 9.2 SE 11.4 0.0 3.0
13:44 18.8 17.7 93 1014.2 8.3 SE 11.4 0.0 3.0
13:45 18.8 17.7 93 1014.3 5.4 SE 11.4 0.0 3.0
13:46 18.8 17.5 92 1014.0 7.6 SE 11.4 0.0 3.0
13:47 18.7 17.4 92 1014.1 9.2 SE 11.4 0.0 3.0
13:48 18.7 17.2 91 1014.2 8.3 SE 11.4 0.0 3.0
13:49 18.7 17.4 92 1014.2 7.6 W 11.4 0.0 3.0
13:50 18.7 17.4 92 1014.2 9.8 SW 10.7 0.0 3.0
13:51 18.7 17.2 91 1014.0 13.0 NE 13.0 0.0 3.0
13:53 18.7 17.2 91 1014.3 8.3 SE 13.0 0.0 3.0
13:54 18.7 17.2 91 1014.2 10.7 SE 13.0 0.0 3.0
13:55 18.7 17.2 91 1014.3 10.7 SE 13.0 0.0 3.0
13:56 18.6 16.9 90 1014.2 7.6 SE 13.0 0.0 3.0
13:57 18.6 17.1 91 1014.3 8.3 SE 13.0 0.0 3.0
13:58 18.6 17.1 91 1014.3 8.3 SE 13.0 0.0 3.0
13:59 18.6 17.1 91 1014.2 10.7 SE 13.0 0.0 3.0
14:01 18.5 16.8 90 1014.2 7.6 SE 13.0 0.0 3.0
14:02 18.5 17.0 91 1014.1 10.7 SE 10.7 0.0 3.0
14:03 18.5 17.0 91 1014.2 9.2 SE 10.7 0.0 3.0
14:04 18.7 17.4 92 1014.2 9.2 SE 10.7 0.0 3.0
14:05 18.8 17.5 92 1014.3 8.3 SE 10.7 0.0 3.0
14:06 18.9 17.6 92 1014.3 8.3 NW 10.7 0.0 3.0
14:07 19.0 17.5 91 1014.3 9.2 SE 10.7 0.0 3.0
14:08 19.0 17.5 91 1014.3 9.8 E 10.7 0.0 3.0
14:09 19.0 17.5 91 1014.2 12.1 SE 12.1 0.0 3.0
14:11 19.0 17.3 90 1014.2 10.7 SE 12.1 0.0 3.0
14:12 19.0 17.3 90 1014.4 9.8 E 12.1 0.0 3.0
14:14 19.0 17.3 90 1014.3 7.6 SSW 12.1 0.0 3.0
14:15 19.0 17.2 89 1014.5 12.1 SE 12.1 0.0 3.0
14:16 18.9 17.1 89 1014.4 13.0 S 13.0 0.0 3.0
14:17 18.8 17.0 89 1014.4 13.0 SE 13.0 0.0 3.0
14:19 18.8 17.0 89 1014.3 11.4 SE 13.0 0.0 3.0
14:20 18.9 17.1 89 1014.4 9.2 SE 13.0 0.0 3.0
14:21 18.9 17.2 90 1014.4 11.4 SE 13.0 0.0 3.0
14:22 18.9 17.1 89 1014.4 9.2 S 13.0 0.0 3.0
14:23 19.0 17.2 89 1014.4 7.6 SE 13.0 0.0 3.0
14:24 19.0 17.2 89 1014.5 12.1 E 13.0 0.0 3.0
14:25 19.0 17.0 88 1014.4 11.4 SE 13.0 0.0 3.0
14:26 18.9 16.9 88 1014.4 13.0 SE 13.0 0.0 3.0
14:27 18.9 16.9 88 1014.3 11.4 SE 13.0 0.0 3.0
14:29 19.0 17.2 89 1014.4 9.8 N 13.0 0.0 3.0
14:30 19.0 17.2 89 1014.3 9.2 SE 13.0 0.0 3.0
14:31 19.0 17.3 90 1014.3 10.7 SE 13.0 0.0 3.0
14:32 19.1 17.1 88 1014.5 9.2 SE 13.6 0.0 3.0
14:33 19.0 17.0 88 1014.6 10.7 E 13.6 0.0 3.0
14:34 19.0 17.0 88 1014.3 4.5 N 13.6 0.0 3.0
14:35 19.0 17.0 88 1014.4 8.3 SE 13.6 0.0 3.0
14:36 18.9 16.9 88 1014.4 6.0 N 13.6 0.0 3.0
14:37 18.9 16.9 88 1014.3 6.0 SE 13.6 0.0 3.0
14:38 19.0 17.2 89 1014.4 8.3 E 13.6 0.0 3.0
14:39 19.0 17.2 89 1014.4 7.6 SE 13.6 0.0 3.0
14:40 19.0 17.2 89 1014.4 6.0 SE 13.6 0.0 3.0
14:41 19.0 17.0 88 1014.5 6.9 NE 13.6 0.0 3.0
14:43 19.0 17.0 88 1014.4 9.2 SE 12.1 0.0 3.0
14:44 19.1 17.3 89 1014.3 8.3 E 12.1 0.0 3.0
14:45 19.2 17.2 88 1014.5 15.9 SE 15.9 0.0 3.0
14:46 19.2 17.0 87 1014.3 11.4 SE 15.9 0.0 3.0
14:47 19.2 17.0 87 1014.5 13.6 SE 15.9 0.0 3.0
14:48 19.2 17.0 87 1014.3 6.9 NE 15.9 0.0 3.0
14:49 19.2 17.2 88 1014.4 8.3 E 15.9 0.0 3.0
14:50 19.3 17.3 88 1014.4 5.4 SE 15.9 0.0 3.0
14:51 19.3 17.1 87 1014.5 7.6 S 15.9 0.0 3.0
14:52 19.3 17.1 87 1014.6 6.0 N 15.9 0.0 3.0
14:53 19.2 17.0 87 1014.5 7.6 NE 15.9 0.0 3.0
14:54 19.1 16.7 86 1014.6 10.7 NE 15.9 0.0 3.0
14:56 19.0 16.8 87 1014.5 10.7 E 13.6 0.0 3.0
14:57 18.9 16.7 87 1014.5 8.3 SE 13.6 0.0 3.0
14:58 18.9 16.5 86 1014.6 13.0 NE 13.0 0.0 3.0
14:59 18.8 16.4 86 1014.5 10.7 SE 13.0 0.0 3.0
15:00 18.7 16.3 86 1014.6 9.8 E 13.0 0.0 3.0
15:02 18.6 16.4 87 1014.6 3.8 SE 13.0 0.0 3.0
15:03 18.6 16.4 87 1014.6 4.5 E 13.0 0.0 3.0
15:04 18.5 16.3 87 1014.6 6.0 N 13.0 0.0 3.0
15:05 18.4 16.2 87 1014.6 6.0 NE 13.0 0.0 3.0
15:06 18.3 16.1 87 1014.6 8.3 SE 13.0 0.0 3.0
15:07 18.2 16.0 87 1014.7 11.4 SE 13.0 0.0 3.0
15:08 18.2 16.2 88 1014.7 6.0 S 11.4 0.0 3.0
15:09 18.2 16.2 88 1014.7 7.6 W 11.4 0.0 3.0
15:10 18.2 16.2 88 1014.6 7.6 NE 11.4 0.0 3.0
15:11 18.2 16.4 89 1014.7 5.4 SE 11.4 0.0 3.0
15:12 18.3 16.5 89 1014.7 8.3 SE 11.4 0.0 3.0
15:13 18.3 16.5 89 1014.6 5.4 N 11.4 0.0 3.0
15:15 18.3 16.5 89 1014.8 6.9 N 11.4 0.0 3.0
15:16 18.3 16.5 89 1014.6 8.3 SE 11.4 0.0 3.0
15:17 18.3 16.5 89 1014.8 9.8 E 11.4 0.0 3.0
15:18 18.3 16.3 88 1014.8 13.0 SE 13.0 0.0 3.0
15:19 18.2 16.2 88 1014.8 8.3 SE 13.0 0.0 3.0
15:20 18.2 16.2 88 1014.8 7.6 WNW 13.0 0.0 3.0
15:21 18.1 16.1 88 1014.7 10.7 NE 13.0 0.0 3.0
15:22 18.1 16.1 88 1014.8 10.7 SE 13.0 0.0 3.0
15:23 18.1 16.1 88 1014.7 8.3 SE 13.0 0.0 3.0
15:24 18.1 16.3 89 1014.6 7.6 SE 13.0 0.0 3.0
15:25 18.0 16.2 89 1014.8 5.4 E 13.0 0.0 3.0
15:26 18.0 16.2 89 1014.7 5.4 NE 13.0 0.0 3.0
15:28 18.0 16.2 89 1014.8 4.5 E 10.7 0.0 3.0
15:29 18.0 16.2 89 1014.8 7.6 SE 10.7 0.0 3.0
15:30 17.9 16.1 89 1014.7 4.5 E 10.7 0.0 3.0
15:31 17.9 16.1 89 1014.8 5.4 E 10.7 0.0 3.0
15:32 17.9 16.1 89 1014.8 6.9 SE 10.7 0.0 3.0
15:33 17.9 15.9 88 1014.8 6.0 NE 8.3 0.0 3.0
15:34 17.8 16.0 89 1014.7 3.1 SE 8.3 0.0 3.0
15:36 17.8 16.0 89 1014.8 6.0 S 8.3 0.0 3.0
15:37 17.7 15.9 89 1014.9 3.8 N 8.3 0.0 3.0
15:40 17.7 15.9 89 1014.8 4.5 NE 8.3 0.0 3.0
15:43 17.6 15.8 89 1014.8 3.1 NE 6.9 0.0 3.0
15:45 17.6 15.8 89 1014.8 5.4 E 6.9 0.0 3.0
15:47 17.5 15.7 89 1014.9 3.1 NE 6.9 0.0 3.0
15:49 17.5 15.7 89 1014.9 4.5 NE 6.9 0.0 3.0
15:52 17.5 15.7 89 1014.8 3.1 NE 6.0 0.0 3.0
15:54 17.5 15.7 89 1014.8 3.8 N 6.0 0.0 3.0
15:56 17.4 15.6 89 1014.9 3.1 NE 6.0 0.0 3.0
15:58 17.3 15.5 89 1015.0 4.5 SE 6.0 0.0 3.0
16:00 17.3 15.5 89 1014.9 6.0 NE 6.0 0.0 3.0
16:02 17.2 15.4 89 1014.8 9.2 NE 9.2 0.0 3.0
16:05 17.3 15.7 90 1014.9 3.1 NW 9.2 0.0 3.0
16:07 17.4 16.1 92 1014.8 3.8 NE 9.2 0.0 3.0
16:09 17.8 16.5 92 1014.9 6.0 SE 9.2 0.0 3.0
16:11 17.9 16.4 91 1014.9 4.5 E 9.2 0.0 3.0
16:13 18.0 16.5 91 1014.8 9.2 SE 9.2 0.0 3.0
16:15 18.0 16.5 91 1014.8 8.3 SE 9.2 0.0 3.0
16:18 17.9 16.2 90 1014.9 5.4 SE 9.2 0.0 3.0
16:20 17.9 16.2 90 1014.9 7.6 E 9.2 0.0 3.0
16:22 17.9 16.2 90 1014.7 4.5 NE 9.2 0.0 3.0
16:24 17.9 16.2 90 1014.9 3.8 NE 8.3 0.0 3.0
16:26 18.1 16.6 91 1014.6 6.0 SE 8.3 0.0 3.0
16:28 18.3 16.8 91 1014.6 6.9 E 7.6 0.0 3.0
16:29 18.4 16.7 90 1014.6 9.2 SE 9.2 0.0 3.0
16:31 18.5 16.7 89 1014.7 7.6 E 9.2 0.0 3.0
16:33 18.5 16.7 89 1014.8 5.4 E 9.2 0.0 3.0
16:35 18.5 16.5 88 1014.7 3.8 NE 9.2 0.0 3.0
16:36 18.6 16.6 88 1014.8 6.0 SE 9.2 0.0 3.0
16:38 18.5 16.5 88 1014.7 4.5 NW 9.2 0.0 3.0
16:39 18.5 16.5 88 1014.9 5.4 E 9.2 0.0 3.0
16:41 18.5 16.5 88 1014.8 7.6 S 7.6 0.0 3.0
16:42 18.4 16.4 88 1014.8 7.6 SE 9.8 0.0 3.0
16:43 18.4 16.4 88 1014.8 6.0 S 9.8 0.0 3.0
16:45 18.3 16.3 88 1014.9 6.9 NE 9.8 0.0 3.0
16:46 18.3 16.1 87 1014.8 8.3 E 9.8 0.0 3.0
16:48 18.2 16.0 87 1014.7 4.5 S 9.8 0.0 3.0
16:49 18.1 15.9 87 1014.8 9.8 SE 9.8 0.0 3.0
16:51 18.1 15.9 87 1014.7 8.3 SE 10.7 0.0 3.0
16:52 18.1 15.9 87 1014.8 6.9 SE 10.7 0.0 3.0
16:54 18.0 16.0 88 1014.9 9.2 SE 10.7 0.0 3.0
16:55 17.9 15.9 88 1015.0 3.8 NE 10.7 0.0 3.0
16:57 17.9 15.9 88 1014.8 3.8 NE 10.7 0.0 3.0
16:58 17.9 15.9 88 1014.9 8.3 E 10.7 0.0 3.0
16:59 17.9 15.9 88 1014.8 6.0 E 10.7 0.0 3.0
17:01 17.8 15.8 88 1015.0 4.5 SE 9.2 0.0 3.0
17:02 17.8 15.8 88 1014.9 3.8 E 9.2 0.0 3.0
17:03 17.8 15.8 88 1015.0 3.1 E 9.2 0.0 3.0
17:05 17.9 15.9 88 1014.9 3.8 SE 8.3 0.0 3.0
17:07 17.9 16.1 89 1015.0 7.6 E 8.3 0.0 3.0
17:08 17.9 16.1 89 1015.0 3.8 E 8.3 0.0 3.0
17:10 17.9 16.1 89 1014.9 4.5 N 7.6 0.0 3.0
17:11 17.8 15.8 88 1015.1 2.2 SE 7.6 0.0 3.0
17:13 17.8 16.0 89 1014.9 4.5 N 7.6 0.0 3.0
17:14 17.7 15.7 88 1014.9 5.4 N 7.6 0.0 3.0
17:16 17.7 15.7 88 1015.1 3.8 N 7.6 0.0 3.0
17:17 17.6 15.6 88 1015.0 4.5 NNE 6.0 0.0 3.0
17:19 17.6 15.6 88 1014.9 3.1 E 6.0 0.0 3.0
17:20 17.5 15.5 88 1015.0 2.2 E 6.0 0.0 3.0
17:22 17.5 15.7 89 1015.0 2.2 NE 6.0 0.0 3.0
17:24 17.6 15.8 89 1015.0 3.8 SE 5.4 0.0 3.0
17:25 17.6 15.8 89 1015.0 4.5 E 4.5 0.0 3.0
17:27 17.6 15.8 89 1015.0 5.4 N 5.4 0.0 3.0
17:28 17.6 15.8 89 1014.9 5.4 E 5.4 0.0 3.0
17:29 17.6 16.0 90 1015.0 3.1 NE 5.4 0.0 3.0
17:31 17.6 16.0 90 1014.9 4.5 NE 5.4 0.0 3.0
17:33 17.7 16.1 90 1014.9 3.8 SE 6.0 0.0 3.0
17:34 17.7 15.9 89 1015.1 6.0 SE 6.0 0.0 3.0
17:35 17.7 15.9 89 1014.9 5.4 SE 6.0 0.0 3.0
17:37 17.8 16.1 90 1015.0 6.9 SE 6.9 0.0 3.0
17:38 17.9 16.2 90 1014.9 7.6 SE 7.6 0.0 3.0
17:40 18.1 16.3 89 1014.9 6.9 SE 7.6 0.0 3.0
17:41 18.3 16.5 89 1015.0 6.0 SE 7.6 0.0 3.0
17:43 18.4 16.6 89 1014.9 9.2 SE 9.2 0.0 3.0
17:44 18.5 16.5 88 1014.7 8.3 SE 9.2 0.0 3.0
17:46 18.5 16.5 88 1014.8 7.6 E 9.2 0.0 3.0
17:47 18.6 16.6 88 1014.8 9.2 E 9.2 0.0 3.0
17:49 18.7 16.7 88 1014.7 5.4 SE 9.2 0.0 3.0
17:51 18.8 16.6 87 1014.9 4.5 NE 9.2 0.0 3.0
17:52 18.9 16.7 87 1014.7 3.8 E 9.2 0.0 3.0
17:53 19.0 16.8 87 1014.8 3.8 SE 9.2 0.0 3.0
17:55 19.1 16.9 87 1014.7 5.4 E 9.2 0.0 3.0
17:56 19.2 16.8 86 1014.8 4.5 N 9.2 0.0 3.0
17:58 19.1 16.5 85 1014.7 7.6 E 7.6 0.0 3.0
17:59 19.0 16.4 85 1014.8 5.4 E 7.6 0.0 3.0
18:00 19.0 16.4 85 1014.9 8.3 SE 8.3 0.0 3.0
18:02 19.0 16.4 85 1014.8 8.3 SE 8.3 0.0 3.0
18:03 19.0 16.4 85 1014.9 5.4 SE 8.3 0.0 3.0
18:04 18.9 16.3 85 1014.8 3.8 NE 8.3 0.0 3.0
18:05 18.9 16.3 85 1014.9 3.8 NE 8.3 0.0 3.0
18:06 18.9 16.3 85 1014.9 3.8 NE 8.3 0.0 3.0
18:07 18.9 16.3 85 1015.0 3.8 NE 8.3 0.0 3.0
18:08 18.9 16.3 85 1014.9 3.8 NE 8.3 0.0 3.0
18:10 18.6 16.0 85 1014.8 9.2 SE 9.2 0.0 3.0
18:11 18.6 16.0 85 1014.8 5.4 SE 9.2 0.0 3.0
18:13 18.6 16.0 85 1014.9 6.9 SE 9.2 0.0 3.0
18:14 18.6 16.0 85 1014.9 6.9 SE 9.2 0.0 3.0
18:15 18.6 16.0 85 1014.8 6.0 SE 9.2 0.0 3.0
18:17 18.5 15.9 85 1015.0 4.5 E 11.4 0.0 3.0
18:18 18.5 16.1 86 1014.8 10.7 E 11.4 0.0 3.0
18:19 18.5 15.9 85 1014.9 8.3 SE 11.4 0.0 3.0
18:21 18.4 15.8 85 1014.8 4.5 SE 11.4 0.0 3.0
18:22 18.4 15.8 85 1014.8 4.5 SE 11.4 0.0 3.0
18:23 18.3 15.9 86 1014.8 8.3 SE 11.4 0.0 3.0
18:24 18.3 15.9 86 1014.8 6.0 E 11.4 0.0 3.0
18:25 18.3 15.9 86 1014.8 3.1 SE 11.4 0.0 3.0
18:26 18.3 15.9 86 1014.9 5.4 SE 10.7 0.0 3.0
18:27 18.2 15.8 86 1014.9 3.1 E 10.7 0.0 3.0
18:29 18.2 15.8 86 1014.9 3.8 NE 8.3 0.0 3.0
18:30 18.1 15.7 86 1014.8 3.1 NE 8.3 0.0 3.0
18:31 18.1 15.7 86 1014.9 3.8 NE 8.3 0.0 3.0
18:32 18.0 15.6 86 1015.0 3.1 NE 8.3 0.0 3.0
18:33 18.0 15.6 86 1015.0 4.5 N 6.0 0.0 3.0
18:34 18.0 15.6 86 1014.9 2.2 N 5.4 0.0 3.0
18:35 17.9 15.5 86 1014.9 2.2 N 5.4 0.0 3.0
18:37 17.8 15.4 86 1014.8 3.8 NE 4.5 0.0 3.0
18:38 17.8 15.4 86 1015.0 3.1 NE 4.5 0.0 3.0
18:39 17.7 15.3 86 1014.9 2.2 NE 4.5 0.0 3.0
18:40 17.7 15.3 86 1015.0 3.1 SE 4.5 0.0 3.0
18:41 17.6 15.4 87 1014.8 4.5 E 4.5 0.0 3.0
18:42 17.6 15.4 87 1014.7 3.8 E 4.5 0.0 3.0
18:43 17.5 15.3 87 1014.7 3.1 E 4.5 0.0 3.0
18:44 17.5 15.3 87 1014.7 4.5 SE 4.5 0.0 3.0
18:45 17.4 15.2 87 1014.7 3.1 N 4.5 0.0 3.0
18:46 17.4 15.2 87 1014.7 4.5 SE 4.5 0.0 3.0
18:47 17.4 15.2 87 1014.9 6.0 SE 6.0 0.0 3.0
18:48 17.3 15.1 87 1014.7 3.1 E 6.0 0.0 3.0
18:49 17.3 15.1 87 1014.7 2.2 E 6.0 0.0 3.0
18:50 17.2 15.0 87 1014.9 3.1 NE 6.0 0.0 3.0
18:52 17.2 15.0 87 1015.0 2.2 NE 6.0 0.0 3.0
18:53 17.1 14.9 87 1015.0 4.5 SE 6.0 0.0 3.0
18:54 17.1 14.9 87 1015.1 6.0 E 6.0 0.0 3.0
18:55 17.1 15.1 88 1014.8 3.8 E 6.0 0.0 3.0
18:56 17.0 15.0 88 1014.7 3.8 E 6.0 0.0 3.0
18:57 17.0 15.0 88 1014.8 3.1 E 6.0 0.0 3.0
18:58 16.9 14.9 88 1014.9 5.4 E 6.0 0.0 3.0
18:59 16.9 14.9 88 1014.9 3.1 NE 6.0 0.0 3.0
19:00 16.9 14.9 88 1014.8 5.4 E 6.0 0.0 3.0
19:02 16.8 14.8 88 1014.9 3.8 NE 6.0 0.0 3.0
19:03 16.8 14.8 88 1014.9 3.1 SE 6.0 0.0 3.0
19:04 16.7 14.7 88 1014.9 5.4 E 6.0 0.0 3.0
19:05 16.7 14.7 88 1014.9 2.2 E 6.0 0.0 3.0
19:06 16.7 14.7 88 1014.8 2.2 E 6.0 0.0 3.0
19:07 16.7 14.7 88 1014.9 2.2 E 6.0 0.0 3.0
19:08 16.7 14.7 88 1014.8 2.2 E 6.0 0.0 3.0
19:09 16.7 14.7 88 1014.9 2.2 E 6.0 0.0 3.0
19:10 16.6 14.8 89 1014.9 3.1 E 5.4 0.0 3.0
19:11 16.6 14.8 89 1014.9 4.5 SE 5.4 0.0 3.0
19:12 16.6 14.8 89 1014.9 6.9 SE 6.9 0.0 3.0
19:13 16.5 14.7 89 1014.9 6.9 SE 8.3 0.0 3.0
19:15 16.5 14.7 89 1014.9 6.0 SE 8.3 0.0 3.0
19:16 16.4 14.6 89 1014.9 4.5 SE 8.3 0.0 3.0
19:17 16.4 14.6 89 1014.9 7.6 SE 8.3 0.0 3.0
19:18 16.4 14.6 89 1015.0 6.9 E 8.3 0.0 3.0
19:19 16.4 14.6 89 1015.0 5.4 SE 8.3 0.0 3.0
19:20 16.3 14.5 89 1014.9 8.3 SE 8.3 0.0 3.0
19:21 16.3 14.5 89 1014.9 6.9 SE 8.3 0.0 3.0
19:22 16.3 14.5 89 1014.9 4.5 SE 8.3 0.0 3.0
19:23 16.3 14.5 89 1014.9 6.9 SE 8.3 0.0 3.0
19:24 16.2 14.4 89 1015.0 5.4 SE 8.3 0.0 3.0
19:25 16.2 14.4 89 1015.0 7.6 S 8.3 0.0 3.0
19:27 16.2 14.4 89 1015.1 7.6 SE 8.3 0.0 3.0
19:28 16.1 14.3 89 1014.9 6.9 SE 8.3 0.0 3.0
19:29 16.1 14.3 89 1014.9 4.5 SE 8.3 0.0 3.0
19:30 16.0 14.2 89 1014.9 6.9 SE 8.3 0.0 3.0
19:31 16.0 14.2 89 1015.1 6.0 SE 7.6 0.0 3.0
19:32 16.0 14.2 89 1014.9 5.4 SE 7.6 0.0 3.0
19:33 16.0 14.4 90 1015.0 5.4 S 7.6 0.0 3.0
19:34 16.0 14.4 90 1014.9 5.4 SE 7.6 0.0 3.0
19:35 16.0 14.4 90 1015.0 8.3 SE 8.3 0.0 3.0
19:36 16.0 14.4 90 1014.9 6.9 SE 8.3 0.0 3.0
19:37 15.9 14.3 90 1015.0 6.9 S 8.3 0.0 3.0
19:38 15.9 14.3 90 1014.9 5.4 SE 8.3 0.0 3.0
19:40 15.8 14.2 90 1015.0 7.6 SE 8.3 0.0 3.0
19:41 15.8 14.2 90 1015.2 7.6 SE 8.3 0.0 3.0
19:42 15.8 14.2 90 1014.9 8.3 S 8.3 0.0 3.0
19:43 15.8 14.2 90 1015.0 6.9 SE 8.3 0.0 3.0
19:44 15.7 14.1 90 1015.0 6.0 S 8.3 0.0 3.0
19:45 15.7 14.1 90 1015.2 6.9 SE 8.3 0.0 3.0
19:46 15.7 14.1 90 1014.9 6.0 SE 8.3 0.0 3.0
19:47 15.6 14.0 90 1015.0 5.4 SE 8.3 0.0 3.0
19:48 15.6 14.0 90 1015.1 6.9 SE 8.3 0.0 3.0
19:49 15.6 14.0 90 1015.1 7.6 SE 8.3 0.0 3.0
19:50 15.6 14.0 90 1014.9 7.6 SE 8.3 0.0 3.0
19:51 15.5 13.9 90 1015.0 6.9 SE 8.3 0.0 3.0
19:52 15.5 13.9 90 1015.2 6.0 S 7.6 0.0 3.0
19:54 15.5 13.9 90 1015.0 4.5 SE 7.6 0.0 3.0
19:55 15.5 14.0 91 1014.9 6.9 SE 7.6 0.0 3.0
19:56 15.5 14.0 91 1015.0 5.4 S 7.6 0.0 3.0
19:57 15.5 14.0 91 1015.0 7.6 S 7.6 0.0 3.0
19:58 15.4 13.9 91 1015.0 5.4 S 7.6 0.0 3.0
19:59 15.4 13.9 91 1014.9 4.5 SE 7.6 0.0 3.0
20:00 15.4 13.9 91 1015.1 3.8 SE 7.6 0.0 3.0
20:01 15.3 13.8 91 1015.1 4.5 SE 7.6 0.0 3.0
20:02 15.3 13.8 91 1015.1 3.8 SE 7.6 0.0 3.0
20:04 15.3 13.8 91 1015.2 5.4 S 7.6 0.0 3.0
20:05 15.3 13.8 91 1015.0 6.0 SE 7.6 0.0 3.0
20:07 15.3 13.8 91 1015.3 6.0 SE 7.6 0.0 3.0
20:08 15.2 13.7 91 1015.2 6.9 S 6.9 0.0 3.0
20:09 15.2 13.7 91 1015.2 6.9 SE 6.9 0.0 3.0
20:10 15.2 13.7 91 1015.3 6.9 SE 6.9 0.0 3.0
20:12 15.1 13.6 91 1015.3 3.1 SE 6.9 0.0 3.0
20:14 15.1 13.6 91 1015.3 8.3 SE 8.3 0.0 3.0
20:15 15.1 13.6 91 1015.3 6.0 SE 8.3 0.0 3.0
20:17 15.1 13.8 92 1015.5 6.0 SE 8.3 0.0 3.0
20:18 15.0 13.5 91 1015.3 6.9 S 8.3 0.0 3.0
20:20 15.0 13.7 92 1015.4 6.9 SE 8.3 0.0 3.0
20:21 15.0 13.7 92 1015.4 5.4 SE 8.3 0.0 3.0
20:22 15.0 13.7 92 1015.2 6.0 SE 8.3 0.0 3.0
20:23 15.0 13.7 92 1015.3 5.4 SE 8.3 0.0 3.0
20:24 14.9 13.6 92 1015.3 4.5 SE 6.9 0.0 3.0
20:25 14.9 13.6 92 1015.4 5.4 SE 6.9 0.0 3.0
20:26 14.9 13.6 92 1015.3 4.5 S 6.9 0.0 3.0
20:27 14.9 13.6 92 1015.5 5.4 SE 6.9 0.0 3.0
20:29 14.9 13.6 92 1015.5 4.5 SE 6.9 0.0 3.0
20:30 14.9 13.6 92 1015.5 3.8 S 6.9 0.0 3.0
20:31 14.8 13.5 92 1015.6 6.0 SE 6.0 0.0 3.0
20:32 14.8 13.5 92 1015.5 3.8 SE 6.0 0.0 3.0
20:33 14.9 13.6 92 1015.5 3.8 SE 6.0 0.0 3.0
20:34 14.8 13.5 92 1015.5 3.8 SE 6.0 0.0 3.0
20:35 14.8 13.5 92 1015.6 2.2 SE 6.0 0.0 3.0
20:36 14.8 13.5 92 1015.4 2.2 SE 6.0 0.0 3.0
20:37 14.8 13.5 92 1015.6 5.4 SE 6.0 0.0 3.0
20:38 14.8 13.5 92 1015.5 3.1 SE 6.0 0.0 3.0
20:39 14.8 13.5 92 1015.5 4.5 SE 6.0 0.0 3.0
20:41 14.8 13.5 92 1015.6 5.4 E 6.0 0.0 3.0
20:42 14.8 13.7 93 1015.7 3.8 SE 6.0 0.0 3.0
20:43 14.8 13.5 92 1015.7 3.8 SE 6.0 0.0 3.0
20:44 14.8 13.7 93 1015.7 2.2 SE 6.0 0.0 3.0
20:45 14.8 13.7 93 1015.6 4.5 SE 6.0 0.0 3.0
20:46 14.8 13.7 93 1015.5 3.8 SE 6.0 0.0 3.0
20:47 14.8 13.7 93 1015.6 4.5 SE 6.0 0.0 3.0
20:48 14.8 13.7 93 1015.7 3.1 SE 6.0 0.0 3.0
20:49 14.8 13.7 93 1015.6 3.1 SE 6.0 0.0 3.0
20:50 14.7 13.6 93 1015.7 2.2 SE 5.4 0.0 3.0
20:52 14.7 13.6 93 1015.8 2.2 N 4.5 0.0 3.0
20:53 14.7 13.6 93 1015.7 3.1 N 4.5 0.0 3.0
20:54 14.7 13.6 93 1015.7 2.2 E 4.5 0.0 3.0
20:55 14.7 13.6 93 1015.8 2.2 E 4.5 0.0 3.0
20:56 14.7 13.6 93 1015.8 3.8 SE 5.4 0.0 3.0
20:57 14.7 13.6 93 1015.8 2.2 SE 5.4 0.0 3.0
20:58 14.7 13.6 93 1015.8 1.6 SE 5.4 0.0 3.0
20:59 14.7 13.6 93 1015.9 3.8 SE 5.4 0.0 3.0
21:01 14.7 13.6 93 1015.9 1.6 SE 5.4 0.0 3.0
21:02 14.7 13.6 93 1016.0 1.6 SE 5.4 0.0 3.0
21:03 14.7 13.6 93 1016.1 3.1 SE 5.4 0.0 3.0
21:04 14.7 13.6 93 1016.1 6.0 SE 6.0 0.0 3.0
21:05 14.7 13.6 93 1016.2 3.8 SE 6.0 0.0 3.0
21:07 14.7 13.6 93 1016.2 3.8 SE 6.0 0.0 3.0
21:08 14.7 13.6 93 1016.2 3.8 SE 6.0 0.0 3.0
21:09 14.7 13.6 93 1016.1 3.8 SE 6.0 0.0 3.0
21:10 14.7 13.6 93 1016.2 3.8 SE 6.0 0.0 3.0
21:11 14.7 13.6 93 1016.2 3.8 SE 6.0 0.0 3.0
21:12 14.6 13.5 93 1016.3 3.8 SE 6.0 0.0 3.0
21:13 14.6 13.5 93 1016.3 3.1 SE 6.0 0.0 3.0
21:14 14.6 13.5 93 1016.3 2.2 SE 6.0 0.0 3.0
21:15 14.6 13.5 93 1016.3 2.2 SE 6.0 0.0 3.0
21:16 14.6 13.5 93 1016.4 3.8 SE 6.0 0.0 3.0
21:18 14.6 13.7 94 1016.3 4.5 SE 6.0 0.0 3.0
21:19 14.5 13.6 94 1016.3 5.4 S 6.0 0.0 3.0
21:20 14.5 13.6 94 1016.3 5.4 S 6.0 0.0 3.0
21:21 14.5 13.4 93 1016.4 3.8 SE 5.4 0.0 3.0
21:22 14.5 13.6 94 1016.4 6.0 SE 6.0 0.0 3.0
21:23 14.5 13.4 93 1016.4 3.8 S 6.0 0.0 3.0
21:24 14.4 13.5 94 1016.4 4.5 SE 6.0 0.0 3.0
21:25 14.4 13.5 94 1016.4 3.1 SE 6.0 0.0 3.0
21:27 14.4 13.5 94 1016.5 3.1 S 6.0 0.0 3.0
21:28 14.4 13.5 94 1016.5 2.2 S 6.0 0.0 3.0
21:29 14.4 13.5 94 1016.4 3.1 N 6.0 0.0 3.0
21:30 14.3 13.4 94 1016.4 2.2 N 6.0 0.0 3.0
21:31 14.3 13.4 94 1016.6 2.2 S 6.0 0.0 3.0
21:32 14.3 13.4 94 1016.8 3.1 S 5.4 0.0 3.0
21:33 14.3 13.4 94 1016.7 3.1 SE 5.4 0.0 3.0
21:34 14.3 13.4 94 1016.7 3.8 SE 4.5 0.0 3.0
21:35 14.3 13.4 94 1016.7 3.1 SE 3.8 0.0 3.0
21:36 14.3 13.4 94 1016.8 1.6 SE 3.8 0.0 3.0
21:37 14.3 13.4 94 1016.8 3.1 SE 3.8 0.0 3.0
21:38 14.3 13.4 94 1016.8 2.2 SE 3.8 0.0 3.0
21:40 14.3 13.4 94 1016.7 2.2 SE 3.8 0.0 3.0
21:41 14.2 13.3 94 1016.8 3.1 SE 3.8 0.0 3.0
21:42 14.2 13.3 94 1016.8 2.2 SE 3.8 0.0 3.0
21:43 14.2 13.3 94 1016.9 1.6 SE 3.8 0.0 3.0
21:44 14.2 13.3 94 1016.8 2.2 SE 3.8 0.0 3.0
21:45 14.2 13.3 94 1016.9 1.6 SE 3.1 0.0 3.0
21:46 14.2 13.3 94 1016.6 1.6 SE 3.1 0.0 3.0
21:47 14.2 13.3 94 1016.8 2.2 SE 3.1 0.0 3.0
21:48 14.2 13.3 94 1017.0 3.8 SE 3.8 0.0 3.0
21:50 14.2 13.3 94 1016.8 2.2 SE 3.8 0.0 3.0
21:51 14.2 13.3 94 1016.8 2.2 SE 3.8 0.0 3.0
21:52 14.1 13.2 94 1016.9 2.2 SE 3.8 0.0 3.0
21:53 14.1 13.2 94 1017.0 1.6 SE 3.8 0.0 3.0
21:54 14.1 13.2 94 1016.9 2.2 SE 3.8 0.0 3.0
21:55 14.1 13.2 94 1017.0 2.2 SE 3.8 0.0 3.0
21:56 14.1 13.2 94 1016.8 3.8 SE 3.8 0.0 3.0
21:58 14.1 13.2 94 1016.9 3.1 SE 3.8 0.0 3.0
21:59 14.1 13.2 94 1017.0 0.7 SE 3.8 0.0 3.0
22:00 14.1 13.2 94 1017.0 1.6 SE 3.8 0.0 3.0
22:01 14.1 13.2 94 1017.0 3.1 SE 3.8 0.0 3.0
22:03 14.1 13.2 94 1017.0 2.2 SE 3.8 0.0 3.0
22:04 14.1 13.2 94 1017.0 2.2 SE 3.8 0.0 3.0
22:05 14.1 13.2 94 1017.1 0.7 SE 3.8 0.0 3.0
22:06 14.0 13.1 94 1017.0 2.2 SE 3.8 0.0 3.0
22:07 14.0 13.1 94 1017.0 0.7 SE 3.1 0.0 3.0
22:09 14.1 13.2 94 1017.0 0.7 SE 3.1 0.0 3.0
22:10 14.0 13.1 94 1016.9 1.6 SE 3.1 0.0 3.0
22:12 14.0 13.1 94 1016.9 1.6 SE 2.2 0.0 3.0
22:13 14.1 13.2 94 1017.1 0.7 SE 2.2 0.0 3.0
22:14 14.0 13.1 94 1016.9 0.7 SE 2.2 0.0 3.0
22:16 14.0 13.1 94 1017.0 1.6 SE 2.2 0.0 3.0
22:17 14.0 13.1 94 1016.9 0.7 NE 3.1 0.0 3.0
22:18 14.0 13.1 94 1016.9 0.7 NE 3.1 0.0 3.0
22:20 14.0 13.2 95 1016.9 1.6 NE 3.1 0.0 3.0
22:21 14.0 13.1 94 1017.0 2.2 NE 3.1 0.0 3.0
22:22 14.0 13.1 94 1016.8 2.2 NE 3.1 0.0 3.0
22:23 14.0 13.1 94 1016.9 1.6 NE 3.1 0.0 3.0
22:25 14.0 13.1 94 1017.0 1.6 NE 3.1 0.0 3.0
22:26 14.0 13.2 95 1016.8 1.6 NE 3.1 0.0 3.0
22:27 14.0 13.2 95 1016.8 1.6 NE 2.2 0.0 3.0
22:28 14.0 13.2 95 1017.0 1.6 NE 2.2 0.0 3.0
22:30 14.0 13.2 95 1017.0 1.6 NE 2.2 0.0 3.0
22:31 14.0 13.2 95 1017.1 2.2 NE 2.2 0.0 3.0
22:32 14.0 13.2 95 1016.9 2.2 NE 2.2 0.0 3.0
22:34 14.0 13.2 95 1017.0 1.6 NE 2.2 0.0 3.0
22:35 14.0 13.2 95 1017.0 1.6 NE 2.2 0.0 3.0
22:36 14.0 13.2 95 1017.0 1.6 NE 2.2 0.0 3.0
22:37 14.0 13.2 95 1017.0 2.2 NE 2.2 0.0 3.0
22:38 13.9 13.1 95 1017.0 1.6 NE 2.2 0.0 3.0
22:40 13.9 13.1 95 1017.0 1.6 NE 2.2 0.0 3.0
22:41 13.9 13.1 95 1016.9 0.7 NE 2.2 0.0 3.0
22:42 13.9 13.1 95 1017.0 1.6 NE 2.2 0.0 3.0
22:43 13.9 13.1 95 1017.0 1.6 NE 2.2 0.0 3.0
22:44 13.9 13.1 95 1016.9 1.6 NE 2.2 0.0 3.0
22:46 13.9 13.1 95 1017.0 1.6 NE 2.2 0.0 3.0
22:47 13.9 13.1 95 1017.1 1.6 NE 2.2 0.0 3.0
22:48 13.9 13.1 95 1016.8 1.6 NE 2.2 0.0 3.0
22:49 13.9 13.1 95 1017.0 1.6 NE 2.2 0.0 3.0
22:50 13.9 13.1 95 1017.0 1.6 NE 2.2 0.0 3.0
22:51 13.9 13.1 95 1017.0 1.6 NE 2.2 0.0 3.0
22:53 13.9 13.1 95 1017.1 0.7 NE 2.2 0.0 3.0
22:54 13.9 13.1 95 1016.9 1.6 NE 2.2 0.0 3.0
22:55 13.9 13.1 95 1017.0 2.2 NE 2.2 0.0 3.0
22:56 13.9 13.1 95 1017.0 1.6 NE 2.2 0.0 3.0
22:57 13.9 13.1 95 1017.0 1.6 NE 2.2 0.0 3.0
22:58 13.9 13.1 95 1016.9 1.6 NE 2.2 0.0 3.0
22:59 13.9 13.1 95 1017.1 1.6 NE 2.2 0.0 3.0
23:01 13.9 13.1 95 1017.0 1.6 NE 3.1 0.0 3.0
23:02 13.9 13.1 95 1017.0 1.6 NE 3.1 0.0 3.0
23:03 13.9 13.1 95 1017.1 1.6 NE 3.1 0.0 3.0
23:05 13.9 13.1 95 1017.1 2.2 NE 3.1 0.0 3.0
23:06 13.9 13.1 95 1017.1 2.2 NE 3.1 0.0 3.0
23:08 13.9 13.1 95 1017.0 2.2 NE 3.1 0.0 3.0
23:09 13.9 13.1 95 1017.1 2.2 NE 3.1 0.0 3.0
23:11 13.9 13.3 96 1017.2 3.8 NE 3.8 0.0 3.0
23:12 13.9 13.1 95 1017.3 2.2 NE 3.8 0.0 3.0
23:13 13.9 13.1 95 1017.2 3.1 NE 3.8 0.0 3.0
23:14 13.9 13.3 96 1017.3 3.8 NE 3.8 0.0 3.0
23:15 13.9 13.1 95 1017.1 2.2 NE 3.8 0.0 3.0
23:16 13.9 13.1 95 1017.3 1.6 NE 3.8 0.0 3.0
23:18 13.9 13.1 95 1017.2 1.6 NE 3.8 0.0 3.0
23:19 13.9 13.3 96 1017.2 1.6 NE 3.8 0.0 3.0
23:20 13.9 13.3 96 1017.3 2.2 NE 3.8 0.0 3.0
23:21 13.9 13.3 96 1017.3 1.6 NE 3.8 0.0 3.0
23:22 13.9 13.3 96 1017.3 1.6 NE 3.8 0.0 3.0
23:24 13.9 13.3 96 1017.4 1.6 NE 3.8 0.0 3.0
23:25 13.9 13.3 96 1017.2 1.6 NE 2.2 0.0 3.0
23:26 13.9 13.3 96 1017.4 2.2 E 2.2 0.0 3.0
23:28 13.9 13.3 96 1017.4 3.8 SE 3.8 0.0 3.0
23:29 13.9 13.3 96 1017.2 3.1 SE 3.8 0.0 3.0
23:30 13.9 13.3 96 1017.3 3.1 SE 3.8 0.0 3.0
23:31 13.9 13.3 96 1017.3 3.1 SE 3.8 0.0 3.0
23:32 13.9 13.3 96 1017.3 2.2 SE 3.8 0.0 3.0
23:34 13.9 13.3 96 1017.5 3.1 SE 3.8 0.0 3.0
23:35 13.9 13.3 96 1017.4 1.6 SE 3.8 0.0 3.0
23:36 13.9 13.3 96 1017.4 2.2 SE 3.8 0.0 3.0
23:37 13.9 13.3 96 1017.3 2.2 E 3.8 0.0 3.0
23:39 13.9 13.3 96 1017.4 2.2 E 3.1 0.0 3.0
23:40 13.8 13.2 96 1017.3 2.2 E 3.1 0.0 3.0
23:41 13.8 13.2 96 1017.4 3.1 E 3.8 0.0 3.0
23:42 13.8 13.2 96 1017.3 1.6 E 3.8 0.0 3.0
23:43 13.8 13.2 96 1017.3 3.1 E 3.8 0.0 3.0
23:45 13.8 13.2 96 1017.4 1.6 E 3.8 0.0 3.0
23:46 13.8 13.2 96 1017.3 1.6 E 3.8 0.0 3.0
23:47 13.8 13.2 96 1017.4 1.6 E 3.8 0.0 3.0
23:48 13.8 13.2 96 1017.4 2.2 E 3.8 0.0 3.0
23:49 13.8 13.2 96 1017.4 2.2 E 3.8 0.0 3.0
23:50 13.8 13.2 96 1017.4 1.6 E 3.8 0.0 3.0
23:52 13.8 13.2 96 1017.4 2.2 E 3.1 0.0 3.0
23:53 13.8 13.2 96 1017.5 2.2 E 3.1 0.0 3.0
23:54 13.8 13.2 96 1017.5 3.8 SE 3.8 0.0 3.0
23:55 13.8 13.2 96 1017.4 2.2 E 3.8 0.0 3.0
23:56 13.8 13.2 96 1017.5 3.1 SE 3.8 0.0 3.0
23:58 13.7 13.1 96 1017.4 1.6 SE 3.8 0.0 3.0
23:59 13.8 13.2 96 1017.4 1.6 SE 3.8 0.0 3.0

UK - WEATHER STATION TOPSITES - UK World Weather Websites

This is a private weather station, never base important decisions or events on data from this weather station. Although every effort has been made to make the data as accurate as possible it does not meet MetOffice standards. It is proved as a guide of local weather conditions. We accept no liability for any loss which may arise from use of the data.

Copyright © Carnkie Weather 2009 - 2018.